GFSFLT1_sfc_30mbdewp_000.txt.gz
Dewpoint
43 40 39 43 47 52 51 45 44 49 48 48 43 42 41 40 39 39 40 40 42 44 44 45 47 46 45 43 44 43 41 39
36 36 37 44 51 50 48 46 44 42 38 37 35 36 36 37 38 41 42 41 41 42 41 42 43 43 44 46 45 44 44 41
34 37 39 41 45 45 42 39 39 38 36 38 39 40 38 40 38 39 38 37 36 36 38 39 39 40 41 43 44 44 44 43
32 36 38 40 40 39 38 39 39 39 38 36 36 36 36 35 35 34 35 35 35 35 36 38 39 39 37 38 40 41 40 42
31 32 36 38 41 41 39 39 38 38 38 37 38 35 35 36 36 35 35 33 34 35 35 37 38 37 37 36 35 37 38 38
35 36 37 38 40 40 40 39 38 38 37 38 36 37 37 36 35 33 30 29 32 33 36 37 38 37 36 39 40 40 40 40
36 37 37 38 40 41 40 37 37 38 38 37 39 40 38 35 32 30 28 30 30 32 36 37 38 38 37 37 39 40 39 39
35 36 36 38 39 40 37 37 36 38 38 36 36 36 35 33 32 30 31 30 30 33 37 36 35 36 36 36 37 37 37 37
35 36 36 38 39 40 39 37 36 35 35 33 32 36 36 34 32 33 32 32 34 37 36 35 36 36 37 37 37 36 36 36
35 35 36 38 39 39 40 39 36 36 36 37 37 38 36 34 33 32 32 34 34 35 36 34 31 32 32 33 35 35 34 34
35 35 36 38 39 40 40 40 39 39 38 37 36 36 35 33 32 32 33 34 36 33 31 30 31 32 35 35 34 34 33 31
35 36 36 37 40 40 39 40 40 38 36 35 34 34 32 32 32 33 34 34 32 31 30 31 33 35 37 36 33 31 26 25
35 36 37 38 39 39 39 39 36 36 34 33 33 33 32 32 33 34 34 34 34 33 35 36 36 36 32 30 28 25 22 20
34 36 37 38 37 36 36 37 36 34 33 32 31 34 34 34 35 35 36 36 36 37 36 35 34 32 30 26 22 21 21 22
36 38 37 36 35 36 38 36 35 34 33 32 32 34 36 36 37 34 33 31 30 29 27 26 26 24 22 20 19 20 19 18
36 36 35 34 34 35 36 35 33 34 33 31 30 29 29 27 26 26 24 23 19 18 17 18 18 18 16 22 18 19 19 19
36 34 33 30 31 35 36 31 32 34 31 29 26 26 24 22 21 20 17 16 16 17 17 17 18 17 25 26 25 21 19 18
35 33 29 30 33 37 31 30 32 32 28 25 26 26 21 19 17 14 15 16 17 17 17 19 19 19 22 22 22 19 17 17
30 29 27 30 34 33 30 30 30 29 27 25 26 22 19 16 15 15 15 16 16 17 18 18 18 17 20 21 20 18 18 18

GFSFLT1_sfc_30mbdewp_003.txt.gz
Dewpoint
38 43 42 42 43 44 47 50 41 43 45 46 41 41 41 39 39 40 42 42 44 44 44 46 47 46 46 46 48 46 47 45
42 40 40 43 47 45 44 45 46 43 41 38 36 36 37 39 40 41 42 42 41 40 40 41 43 42 44 46 46 45 46 46
37 38 40 41 46 46 46 44 40 38 37 39 40 41 39 40 39 38 38 39 39 38 38 38 38 38 42 43 44 44 43 44
35 38 42 43 44 42 40 40 40 39 38 37 37 37 37 36 37 37 38 40 37 35 34 36 39 39 38 40 40 40 39 40
31 35 38 42 41 40 39 39 38 38 39 38 38 37 36 38 38 38 37 35 32 32 33 35 38 38 39 38 34 41 39 38
34 36 37 39 41 42 40 39 38 39 38 38 39 39 40 41 39 37 36 32 32 31 32 34 37 36 37 39 39 38 37 37
35 36 37 40 41 41 40 38 37 39 40 40 41 42 41 36 34 33 31 32 31 31 31 34 36 36 35 36 36 38 40 38
35 35 36 38 39 40 38 37 37 38 39 39 36 35 35 34 33 32 32 30 30 32 34 35 34 34 34 37 41 40 39 38
36 36 37 38 39 39 41 40 38 36 37 37 36 36 35 34 34 33 32 31 32 32 33 35 34 34 36 36 36 37 36 36
35 35 36 38 38 39 40 40 39 39 39 37 36 35 34 34 33 32 32 32 31 31 32 32 34 33 35 36 36 36 36 36
34 35 36 37 37 38 39 40 39 39 38 36 34 34 34 32 31 31 31 31 32 33 34 34 34 36 36 35 35 35 35 33
34 35 36 37 37 38 39 39 40 37 35 34 34 33 32 31 30 31 33 35 34 36 37 37 37 36 36 36 33 32 33 33
34 34 35 36 38 38 38 39 37 36 34 33 31 30 31 30 31 33 33 34 35 36 36 36 36 37 36 34 33 28 26 25
35 37 37 37 37 38 38 38 37 36 34 31 29 29 29 31 31 31 31 30 30 29 29 29 27 27 25 22 22 24 24 23
36 36 36 36 36 36 36 36 37 36 32 30 28 28 28 27 27 26 24 23 21 18 17 17 17 17 16 17 17 18 17 16
37 36 34 33 31 32 32 36 36 34 33 31 28 26 25 23 22 22 20 18 16 15 15 16 16 16 18 22 21 20 19 18
37 33 32 31 29 29 30 34 31 31 32 29 26 25 25 22 20 18 15 14 14 16 16 16 16 16 24 24 23 19 17 16
35 32 29 27 25 25 28 29 29 30 29 27 24 24 26 21 19 14 13 14 15 16 16 16 17 18 22 22 22 19 18 16
31 28 25 21 21 23 26 28 26 25 25 25 24 26 25 22 18 15 14 15 15 16 16 18 19 18 23 22 20 18 16 16

GFSFLT1_sfc_30mbdewp_006.txt.gz
Dewpoint
36 37 39 41 43 44 52 52 52 50 49 48 45 44 44 45 45 45 46 46 46 46 46 48 50 49 47 48 50 48 47 47
43 43 43 44 46 45 51 51 49 46 45 43 43 43 42 43 43 43 42 45 43 44 43 44 43 44 45 45 45 43 43 46
39 42 45 49 49 50 50 47 43 42 42 43 43 43 42 42 44 43 44 43 42 40 41 42 43 43 42 44 45 43 41 41
39 43 45 46 45 43 42 41 41 42 42 41 40 40 40 41 42 42 43 43 40 40 39 41 42 41 40 41 42 41 41 40
36 41 43 43 43 43 41 40 39 41 41 41 40 39 40 42 45 45 45 41 40 37 37 40 41 41 40 42 40 42 41 39
36 39 41 42 43 43 42 40 39 40 40 40 41 44 45 45 44 42 39 39 37 36 36 38 40 39 40 42 40 42 42 40
36 38 41 42 43 42 41 39 38 40 41 43 41 39 39 39 39 38 37 36 35 36 37 38 39 39 38 41 42 41 40 40
36 37 38 39 40 40 41 42 40 40 39 39 39 40 40 38 38 37 35 35 36 35 37 37 38 38 39 39 39 41 39 39
36 37 38 38 39 40 42 41 40 40 41 40 41 40 38 38 38 35 35 35 36 35 38 38 38 38 39 39 38 38 38 39
35 35 37 38 39 40 41 41 41 41 42 41 39 38 38 37 35 36 35 37 35 36 38 38 37 38 38 37 37 36 37 37
35 36 37 38 39 41 42 41 41 40 38 36 36 36 36 36 35 35 36 36 35 36 37 38 37 37 37 36 37 36 35 35
35 36 38 38 39 39 41 40 39 39 38 36 35 35 34 34 34 35 35 34 34 34 34 34 35 35 37 37 36 35 32 30
36 38 38 37 38 39 40 40 40 39 38 36 34 33 32 32 33 31 31 31 33 32 31 30 31 31 33 32 34 33 31 30
36 37 37 36 36 37 36 37 38 38 37 35 33 31 30 30 29 29 29 29 29 26 23 22 21 21 21 20 20 23 23 21
37 37 37 34 33 33 33 33 38 38 36 34 32 31 28 27 28 26 25 25 22 20 20 20 21 20 19 22 22 23 22 21
37 37 35 33 31 30 29 30 32 36 36 33 33 30 27 27 27 25 24 22 20 19 19 20 21 20 22 23 23 21 21 20
34 34 31 29 28 26 24 25 28 32 30 31 31 30 27 27 27 25 22 20 19 20 20 20 20 19 24 24 24 22 21 20
33 30 28 25 21 20 20 22 23 28 28 28 32 35 33 32 28 24 21 19 20 21 21 21 21 23 24 25 23 21 20 18
29 24 22 22 21 19 19 18 19 21 22 28 33 33 32 29 28 27 23 20 20 20 22 22 22 22 23 24 24 21 19 18

GFSFLT1_sfc_30mbdewp_009.txt.gz
Dewpoint
43 45 47 49 55 57 54 58 54 50 50 48 47 45 45 45 44 44 45 44 42 41 41 41 43 44 43 43 43 44 44 44
48 49 51 53 54 55 54 53 51 50 46 43 42 41 43 43 42 44 42 41 41 41 41 44 44 42 42 42 43 41 41 43
45 44 43 47 49 48 45 44 43 43 43 44 43 43 42 41 42 43 45 44 43 41 41 42 43 40 39 39 39 41 41 41
43 43 43 42 42 41 40 40 40 42 41 39 40 40 41 41 44 44 43 44 39 38 39 38 41 41 38 39 41 39 39 41
42 42 42 42 43 41 40 40 39 40 41 41 40 42 43 44 44 43 42 38 36 38 37 38 39 39 39 41 42 42 41 40
41 42 42 43 42 41 41 40 40 40 40 40 42 40 40 42 43 38 37 36 37 37 37 37 38 39 38 41 41 40 40 39
40 42 42 42 41 41 39 39 40 41 41 43 41 38 40 38 37 35 35 36 37 35 38 39 39 39 40 40 41 39 39 39
38 40 41 41 41 41 42 41 40 41 41 41 40 38 38 37 35 35 34 36 36 38 38 38 38 38 39 38 38 38 39 38
36 36 38 39 39 40 41 41 41 42 42 39 39 38 38 38 35 35 37 37 36 37 39 38 38 38 38 37 37 37 37 37
35 38 39 39 40 41 42 41 40 38 36 37 37 37 38 36 35 37 36 36 35 36 37 36 36 37 37 37 36 36 36 36
38 38 39 39 40 41 41 40 39 39 37 38 37 37 36 36 35 34 34 34 33 33 32 33 34 35 36 37 36 35 34 34
38 38 38 39 39 40 40 39 39 39 38 37 35 35 33 34 34 32 32 31 31 32 33 33 32 32 32 33 33 34 33 32
38 38 37 36 36 35 34 35 38 39 38 37 35 34 31 31 30 31 30 29 31 31 29 23 23 22 22 23 26 27 24 22
38 37 37 35 33 33 34 33 37 37 37 37 35 34 30 29 27 29 28 26 25 22 21 21 21 22 22 23 23 24 23 22
36 35 35 33 32 31 30 28 30 35 37 37 37 38 34 29 30 28 25 24 21 21 20 20 21 22 23 22 22 22 21 21
34 33 32 30 28 24 22 23 25 26 35 34 34 36 34 35 33 30 29 24 22 20 19 21 22 23 23 24 23 22 21 21
32 32 30 25 22 21 21 21 21 22 21 22 33 36 35 35 35 34 28 22 20 19 21 22 23 23 26 25 24 22 21 20
31 30 26 23 21 21 19 19 20 21 21 29 34 36 35 35 36 33 27 24 21 21 23 22 23 24 26 26 25 23 21 19
29 27 20 20 19 18 18 18 18 19 27 29 31 33 33 35 35 29 26 24 21 23 24 25 25 24 25 28 28 26 22 21

GFSFLT1_sfc_30mbdewp_012.txt.gz
Dewpoint
52 54 57 57 56 56 57 57 57 54 50 49 47 45 44 45 43 43 43 43 43 42 42 43 44 42 41 40 40 40 41 42
49 52 55 55 55 55 53 52 50 51 46 45 43 42 41 43 45 45 44 44 43 41 42 42 43 41 40 39 40 39 38 41
44 47 46 47 47 48 45 43 43 43 44 44 45 43 43 43 44 44 44 40 39 38 38 39 41 38 37 38 40 40 41 41
42 43 44 44 43 41 40 40 41 41 41 40 41 41 42 44 44 42 38 37 38 38 38 38 39 39 38 39 41 40 39 41
41 41 42 41 40 40 39 39 39 40 40 40 41 42 42 44 43 39 36 37 37 38 39 39 40 41 40 41 42 41 40 38
41 41 41 41 41 40 40 40 40 40 40 41 42 41 41 42 38 36 35 37 39 39 39 38 38 39 38 38 41 39 39 39
42 42 41 41 41 40 39 41 41 42 42 43 41 39 39 37 35 34 36 38 38 39 38 38 38 39 38 38 37 37 38 38
40 40 40 41 41 42 42 41 42 42 40 39 38 38 37 35 35 35 37 37 37 38 38 37 37 38 37 37 36 35 36 36
40 40 40 40 42 42 41 38 37 38 37 37 37 37 38 37 36 38 37 36 36 38 37 35 34 35 36 36 36 35 35 35
39 39 40 41 40 40 40 39 38 37 37 37 37 38 38 36 37 36 35 35 35 33 33 33 33 35 36 36 35 33 34 33
38 38 39 41 41 40 39 39 39 38 38 37 36 36 37 36 35 34 34 33 32 32 31 32 33 33 34 34 33 33 33 33
38 37 37 37 35 35 36 37 38 39 38 37 37 35 34 35 34 33 33 32 31 31 32 31 26 26 25 26 28 31 26 23
37 37 36 34 33 33 33 32 33 38 38 38 37 36 34 32 34 34 32 31 31 29 28 23 22 21 23 23 24 24 23 22
35 35 34 32 32 30 26 25 27 30 33 35 36 35 36 32 31 30 30 30 31 33 24 20 20 22 23 24 23 23 22 22
33 32 32 31 28 23 22 23 24 24 24 28 30 33 37 33 33 32 33 34 35 34 22 20 22 24 24 22 22 22 22 21
32 32 31 29 23 22 21 21 20 22 22 27 34 35 35 35 35 35 34 35 36 26 21 21 24 24 23 23 23 22 21 21
31 30 30 24 22 19 19 18 19 21 23 31 33 35 35 35 36 36 36 36 24 24 23 24 23 23 26 25 25 23 22 21
29 29 22 21 19 18 16 17 19 21 28 30 30 35 33 34 36 36 36 31 29 23 24 24 24 24 26 27 27 25 24 22
26 19 18 18 17 16 17 18 19 21 28 29 30 31 31 33 34 34 34 34 25 24 25 24 22 24 27 27 26 25 23 22

GFSFLT1_sfc_30mbdewp_015.txt.gz
Dewpoint
56 57 56 56 57 57 57 57 56 54 54 48 46 45 45 44 43 44 44 44 43 42 42 43 42 40 38 38 38 39 39 40
51 53 55 54 54 54 55 54 53 48 47 44 44 44 45 45 45 44 41 41 39 38 39 40 39 37 37 38 39 39 38 41
48 50 51 52 50 47 46 47 46 45 46 48 48 45 43 46 43 40 39 38 38 38 38 39 39 39 39 39 40 40 40 41
47 48 48 48 42 41 41 41 41 43 43 43 42 43 43 44 41 37 38 38 39 39 39 39 40 40 39 41 40 40 39 40
43 42 40 39 39 39 39 39 40 40 41 40 40 41 41 43 41 37 38 39 39 39 38 39 39 39 38 39 39 39 38 38
40 39 39 39 40 39 40 41 41 41 41 42 43 41 42 39 37 36 38 39 39 39 39 38 38 38 37 37 36 36 37 37
41 41 41 41 41 40 42 42 42 41 40 39 39 38 36 35 35 34 38 38 39 40 38 37 38 37 37 36 36 35 35 35
41 41 41 41 42 42 41 40 38 38 37 37 37 36 36 35 35 35 38 38 39 37 36 34 33 35 36 36 35 34 33 33
40 40 40 40 40 39 37 37 36 36 37 36 36 37 38 37 36 37 38 37 36 37 35 33 33 34 35 35 35 33 33 33
39 40 40 39 39 39 39 39 37 37 37 37 36 37 38 37 37 37 37 36 36 36 35 34 34 34 35 35 34 33 33 33
39 39 39 38 37 38 38 39 38 38 38 38 38 37 37 37 37 36 35 35 35 33 33 33 32 32 32 32 30 29 31 32
37 37 37 36 35 34 35 34 35 38 39 38 38 38 36 35 35 35 34 33 33 33 33 32 30 25 25 24 24 27 27 23
37 36 35 34 33 33 29 28 27 28 30 31 31 33 34 35 33 34 33 32 33 30 32 32 27 24 23 23 22 25 23 21
34 34 32 32 31 27 24 24 23 24 25 28 30 32 33 34 33 31 32 31 30 33 34 33 26 23 23 24 24 23 21 22
32 32 32 31 27 23 22 21 22 22 22 25 29 32 32 32 33 32 32 32 34 34 35 30 24 24 24 22 22 22 22 22
31 30 30 29 23 21 20 19 20 21 21 26 30 34 35 35 35 35 35 34 35 37 28 28 25 25 23 23 23 23 23 22
28 29 29 24 21 18 18 17 18 21 21 27 31 33 34 34 35 36 36 36 34 29 31 25 23 23 25 26 29 27 25 24
28 29 24 21 19 18 16 16 18 20 21 29 30 31 33 31 33 35 34 34 35 30 24 24 22 23 27 28 28 26 24 23
28 23 19 19 18 17 17 17 18 19 22 29 30 30 30 31 31 32 33 33 32 25 24 24 24 25 23 24 25 22 20 20

GFSFLT1_sfc_30mbdewp_018.txt.gz
Dewpoint
55 55 57 57 58 58 58 57 58 57 54 49 46 46 46 47 47 44 41 42 42 42 42 40 39 38 38 38 38 39 39 40
54 54 55 55 56 57 57 56 55 54 47 45 45 44 48 45 41 41 41 39 38 38 39 39 40 39 39 40 40 39 39 41
51 52 52 52 53 54 55 54 49 46 46 47 48 47 45 44 40 39 39 39 39 38 39 39 39 36 37 39 39 38 39 40
51 51 48 45 45 47 46 45 44 46 46 43 43 43 45 43 38 37 39 39 39 38 37 37 37 37 38 39 39 38 37 38
45 42 40 40 40 40 40 40 40 41 41 42 42 42 41 41 37 37 38 38 37 37 37 38 39 38 36 38 38 37 37 35
40 38 38 40 39 40 42 42 42 42 42 42 41 40 39 37 36 37 36 38 38 39 38 38 37 37 37 36 35 34 35 34
40 40 40 40 41 41 41 40 39 38 38 38 37 36 35 35 35 35 37 38 39 39 38 37 37 36 36 35 34 33 33 33
40 40 41 42 41 41 39 38 36 37 37 37 36 36 35 35 35 35 36 37 38 39 36 34 32 34 35 34 33 32 31 31
41 41 41 39 38 37 37 37 36 37 37 36 36 36 37 37 37 36 37 37 38 37 35 33 32 33 34 34 34 33 33 32
40 40 39 39 39 39 38 37 37 37 37 38 38 37 37 38 38 37 37 37 37 36 35 32 32 33 32 34 34 33 32 31
39 39 38 37 38 38 39 38 38 39 39 38 38 38 36 35 35 35 35 35 35 34 32 33 33 33 33 32 31 29 28 29
38 38 37 35 35 35 34 32 34 32 30 31 29 30 32 33 33 33 34 34 33 32 33 33 33 31 28 26 25 24 26 26
37 36 35 33 33 31 26 27 25 25 27 27 27 30 32 33 32 32 33 33 33 33 32 32 33 32 27 23 23 25 24 22
36 35 33 33 31 26 24 24 21 23 23 24 26 29 31 30 30 30 31 32 32 31 33 34 34 30 24 25 24 23 21 22
32 33 32 31 29 24 23 21 21 20 21 23 26 29 31 32 32 33 33 34 33 34 34 35 28 25 25 23 22 22 23 23
31 31 31 30 24 22 21 19 20 20 21 21 25 31 33 35 35 34 35 35 35 36 34 30 26 24 23 23 25 26 25 24
30 30 29 29 23 20 18 17 17 20 21 21 28 31 31 33 33 32 34 34 34 35 28 24 23 23 27 28 29 27 25 23
28 28 28 22 21 19 16 16 18 19 20 21 28 30 30 31 31 32 32 32 33 30 24 23 23 26 25 24 26 23 20 19
28 28 22 20 19 17 17 18 19 20 20 23 28 29 29 30 31 30 30 31 31 26 23 24 23 20 20 21 21 22 20 19

GFSFLT1_sfc_30mbdewp_021.txt.gz
Dewpoint
53 55 57 59 59 58 59 59 58 59 57 53 48 48 49 50 48 45 44 43 44 42 41 41 40 38 38 38 37 37 37 37
55 57 58 58 58 58 58 58 58 55 49 47 47 48 50 43 41 42 41 41 41 41 39 39 39 39 40 40 38 36 32 37
54 55 56 57 57 58 57 56 56 49 47 48 50 49 46 41 40 41 40 40 40 39 40 40 40 38 40 39 38 33 34 37
53 53 54 53 54 55 54 49 48 47 49 47 46 47 45 42 38 38 39 39 38 40 41 40 39 38 38 38 37 34 28 32
49 45 45 47 46 47 46 45 44 44 44 45 45 43 43 40 38 38 38 40 39 39 40 40 40 38 36 35 33 32 29 24
41 40 40 40 42 43 43 43 43 43 44 44 41 40 39 38 38 39 39 39 40 40 40 40 38 35 35 33 32 30 29 26
40 40 41 41 43 43 43 40 39 40 40 39 38 37 38 37 37 38 39 39 40 41 40 38 36 34 34 33 33 32 29 28
40 40 40 42 42 41 40 38 38 39 39 38 38 38 38 37 38 37 38 38 39 39 40 38 33 34 34 34 32 31 30 27
41 41 42 41 40 39 39 38 38 38 38 38 39 39 39 39 39 39 38 38 38 39 39 35 33 34 34 34 34 33 33 31
41 41 41 39 39 39 39 37 37 38 39 40 40 40 39 36 35 37 37 37 36 38 38 35 35 34 33 33 32 33 32 30
41 40 40 39 39 40 40 38 38 39 39 38 35 34 33 33 34 31 32 33 34 36 37 35 35 34 34 32 31 30 29 27
40 39 38 37 38 38 38 36 37 32 29 30 29 29 31 33 32 31 30 32 31 34 35 35 34 34 33 33 29 27 26 26
39 38 36 35 35 35 31 32 27 26 27 27 27 30 31 31 30 31 32 32 33 34 34 34 33 34 34 30 26 26 25 25
38 36 35 34 33 28 27 25 23 24 24 24 25 27 30 31 32 32 33 33 34 35 33 33 35 36 28 26 26 24 23 23
36 35 33 33 32 27 25 24 24 23 22 21 23 28 31 33 34 34 34 34 35 35 36 36 33 28 26 24 23 24 25 25
34 32 32 32 30 25 25 24 23 23 22 22 24 28 33 34 34 34 33 34 35 35 34 31 29 26 23 26 27 26 24 22
33 31 31 30 29 26 24 22 21 22 22 23 25 29 32 32 32 33 33 33 33 34 31 26 25 25 28 27 26 21 19 16
32 31 30 30 29 25 21 19 21 21 22 23 24 30 31 31 31 31 31 30 32 33 27 24 25 23 22 23 22 20 17 16
30 29 30 25 23 21 20 19 20 22 22 24 28 30 30 30 30 30 28 28 31 31 26 24 22 18 20 20 20 17 17 15

GFSFLT1_sfc_30mbdewp_024.txt.gz
Dewpoint
53 52 53 55 57 59 59 60 59 59 58 58 52 49 49 48 49 46 45 45 45 43 43 42 39 39 40 41 41 39 36 35
54 55 56 56 58 58 59 58 60 58 57 53 49 48 48 45 43 44 43 42 42 41 39 41 42 39 41 39 35 32 31 33
54 55 56 57 57 58 58 58 58 55 52 48 47 48 46 43 42 43 41 41 40 39 40 38 39 35 37 38 37 34 30 30
53 54 56 57 57 58 57 56 55 48 48 49 49 48 44 42 42 40 40 40 38 38 38 36 35 34 31 36 35 33 30 25
52 53 54 56 56 56 50 48 47 48 47 44 44 42 42 42 40 40 38 38 36 35 35 38 37 36 35 34 30 31 28 24
47 48 50 51 53 49 47 45 44 45 45 45 42 41 39 37 36 36 36 35 37 37 36 38 39 38 35 33 31 30 27 26
41 42 43 44 45 45 44 42 42 42 41 40 38 35 31 29 31 31 29 31 32 34 37 39 38 37 34 33 33 31 30 27
40 40 39 41 43 44 43 41 41 40 37 33 32 32 32 29 30 30 31 26 26 28 31 31 34 35 34 34 32 32 31 26
39 39 40 42 43 42 41 40 37 34 32 33 36 33 30 30 29 26 24 25 24 26 27 30 34 36 35 33 32 32 31 29
39 40 41 42 42 42 40 35 32 33 39 40 36 33 27 24 25 26 23 23 23 23 27 30 33 34 34 33 31 32 31 30
40 41 42 41 41 40 37 36 35 37 38 34 28 25 24 25 25 23 23 24 25 25 26 27 30 31 32 32 30 30 29 27
41 41 42 41 39 37 39 36 37 36 30 27 26 23 24 25 24 23 25 27 26 26 28 29 29 29 30 31 32 31 28 24
41 41 40 38 36 37 36 35 33 29 27 25 23 23 23 23 23 25 27 28 27 27 29 29 29 30 34 36 31 25 24 24
41 40 38 35 35 35 31 31 28 27 23 21 21 22 23 23 24 27 28 28 27 28 29 29 29 32 33 31 28 26 25 25
40 39 37 34 34 31 28 30 27 24 21 19 20 23 24 25 27 29 29 28 28 28 29 29 30 30 30 27 25 27 26 24
39 38 36 35 33 29 28 29 28 23 21 20 22 24 25 26 30 30 28 28 28 28 29 30 30 29 27 28 26 24 22 20
38 37 35 32 31 30 29 29 24 22 20 21 23 24 25 26 29 28 26 27 27 27 28 30 28 24 26 26 23 20 20 16
37 36 33 31 30 31 30 25 22 21 21 22 22 24 24 25 25 25 25 26 28 27 29 29 26 26 22 22 21 18 17 15
36 35 32 30 31 29 25 21 20 21 22 21 21 23 24 24 24 24 26 26 26 26 27 26 26 22 21 20 20 18 18 17

GFSFLT1_sfc_30mbdewp_027.txt.gz
Dewpoint
48 46 45 46 52 57 58 59 58 58 60 59 57 54 52 51 50 47 47 47 46 44 44 44 44 42 42 43 42 39 36 32
51 50 51 52 57 58 59 59 58 58 56 53 52 51 49 48 46 46 45 44 43 43 41 42 42 41 39 40 38 34 31 29
51 52 53 54 58 58 58 58 58 58 56 55 51 49 47 44 44 45 44 43 42 40 42 40 38 36 33 31 34 34 31 29
51 53 55 56 57 58 57 57 58 55 50 48 48 48 46 43 43 43 43 42 39 38 38 36 35 34 31 32 33 33 30 29
51 53 55 57 57 58 57 57 51 48 47 45 45 42 42 43 43 41 40 40 38 35 33 35 35 35 35 34 31 32 32 29
50 51 54 56 57 56 52 49 46 47 45 45 45 43 43 40 38 36 33 34 33 33 34 35 36 35 34 34 33 33 33 30
46 48 49 51 53 48 47 45 44 45 45 44 43 39 33 31 32 31 29 29 29 27 28 30 30 30 33 32 33 34 34 32
42 43 44 47 47 46 45 43 42 43 41 37 35 33 32 33 32 28 27 23 23 24 27 26 27 29 31 33 35 36 32 31
39 40 40 42 44 44 42 42 42 40 35 33 34 32 32 29 27 26 26 25 23 25 25 26 27 30 30 34 35 33 33 34
38 39 40 41 43 43 42 41 39 34 36 36 34 32 27 24 26 28 24 24 23 22 26 25 25 26 29 33 33 33 32 32
38 38 41 42 42 43 43 40 35 36 34 36 32 28 26 25 27 26 24 25 26 26 26 26 27 27 27 27 29 31 30 32
39 39 41 42 42 43 40 38 36 34 32 30 29 28 26 26 26 25 24 26 27 26 25 26 26 25 26 30 34 34 33 32
39 40 41 42 42 41 40 38 34 32 29 30 30 26 24 25 25 23 25 27 28 27 25 25 25 25 27 32 30 33 32 29
39 40 41 41 41 39 39 36 33 31 30 31 25 24 24 25 25 24 26 27 27 26 25 25 25 26 26 28 30 29 28 27
39 40 41 40 39 38 37 33 35 32 31 25 22 22 24 26 24 24 25 27 27 26 25 25 26 27 26 26 26 28 28 26
39 40 40 39 38 37 34 33 34 31 28 23 21 23 26 25 23 25 27 28 26 26 25 24 27 27 26 28 26 24 23 22
38 40 40 39 37 36 31 33 31 31 26 24 22 24 25 22 22 26 27 24 24 25 25 25 28 26 25 24 23 22 20 17
36 38 39 38 37 35 30 31 34 29 24 22 23 24 23 21 22 22 22 23 25 25 25 26 28 27 23 22 22 19 19 18
35 37 38 38 36 33 32 33 28 25 22 22 22 20 19 21 21 21 21 23 24 24 24 27 27 26 23 21 21 20 19 19

GFSFLT1_sfc_30mbdewp_030.txt.gz
Dewpoint
42 42 44 48 56 57 58 61 60 59 60 58 57 55 53 53 52 50 50 49 48 48 47 46 46 45 43 44 44 42 38 36
46 45 45 51 58 59 58 59 59 59 57 55 54 52 51 50 49 48 47 47 45 46 46 45 44 41 40 38 37 37 37 37
50 49 51 57 58 60 59 58 58 58 57 54 53 51 50 49 47 47 46 44 43 45 43 41 40 38 37 39 38 37 36 36
50 51 53 59 58 60 59 59 58 58 57 55 53 51 47 45 46 46 44 43 41 40 38 38 39 39 38 39 38 36 34 34
49 51 55 56 58 59 58 58 58 58 56 50 49 47 45 45 46 45 44 42 39 36 36 37 40 40 39 39 36 37 35 34
49 54 56 57 58 58 58 58 57 51 48 49 48 46 46 43 41 39 36 37 38 35 35 36 35 35 37 38 37 36 36 35
48 55 56 55 58 58 58 56 48 48 46 47 47 43 39 37 36 35 34 33 32 33 32 31 32 33 34 35 37 37 36 35
48 51 54 55 55 53 50 47 45 46 46 43 39 36 37 37 36 34 29 28 29 30 29 30 31 32 33 35 37 37 37 36
46 47 49 52 49 48 47 44 44 44 42 38 38 38 36 34 33 29 29 28 27 28 29 30 30 30 31 33 36 37 37 36
43 43 46 47 47 47 45 43 43 42 38 38 37 34 31 29 28 30 31 27 26 30 30 30 30 31 31 32 33 36 36 36
40 40 43 44 45 46 45 44 42 38 39 38 36 33 30 29 30 30 28 27 28 29 29 29 29 30 30 30 35 36 35 36
40 39 41 43 44 45 45 44 39 38 36 36 34 31 31 29 31 30 28 28 28 29 29 27 27 28 29 30 31 30 32 34
40 39 41 42 44 44 45 43 38 37 37 33 33 32 31 31 29 29 28 28 29 29 29 27 27 28 29 29 31 31 31 31
40 40 40 42 43 44 44 41 39 37 33 31 31 32 32 27 29 28 27 28 30 30 28 28 28 28 28 29 29 29 30 30
38 39 41 42 43 43 42 42 39 33 33 32 33 32 29 28 28 27 27 28 29 29 28 28 29 28 28 28 27 28 29 26
36 38 41 42 43 43 41 40 36 35 33 32 29 30 26 28 28 27 28 30 29 28 27 29 28 28 27 28 26 24 25 23
33 37 39 42 42 41 40 38 36 36 33 32 29 30 27 27 26 26 28 29 28 27 28 27 28 27 26 24 22 22 22 22
30 35 37 40 42 41 39 35 36 34 33 30 31 25 25 25 23 23 24 25 27 27 28 28 28 27 26 24 21 20 21 23
30 32 35 38 41 39 38 33 34 35 31 28 26 24 22 21 23 25 25 25 26 28 27 28 29 27 26 23 21 20 22 22

GFSFLT1_sfc_30mbdewp_033.txt.gz
Dewpoint
46 48 51 53 53 53 59 59 58 58 57 58 58 54 54 54 51 50 50 49 50 48 46 46 45 43 40 39 39 40 38 37
42 45 52 55 55 59 59 58 58 58 57 56 54 52 52 52 51 50 49 46 46 46 45 41 40 38 37 39 38 36 36 36
44 49 55 56 57 59 60 58 57 58 57 57 54 52 51 50 47 47 46 45 45 43 41 39 38 38 38 39 37 37 36 34
48 55 57 58 58 59 58 58 57 58 58 57 54 51 49 47 46 45 44 43 41 41 40 38 39 39 38 38 38 35 33 34
50 55 58 59 59 59 59 58 57 58 58 55 51 46 44 46 46 44 42 41 38 36 39 39 38 38 36 39 38 36 34 33
50 55 58 58 59 59 59 59 58 58 58 54 49 46 45 46 45 43 43 41 39 34 33 32 32 33 34 34 34 37 37 35
53 56 57 57 58 58 58 58 58 58 52 51 47 44 41 38 37 35 37 34 32 31 31 30 30 31 32 33 34 38 36 35
55 55 55 56 57 57 58 57 53 48 44 43 41 40 37 35 35 34 29 29 30 29 30 30 30 30 31 32 34 36 36 36
55 55 55 56 56 57 56 51 47 45 40 37 37 37 37 36 34 31 30 29 29 30 30 29 29 30 31 30 32 34 37 37
52 54 55 54 53 51 47 45 45 42 39 38 37 36 34 32 31 31 31 28 29 29 29 28 29 29 30 29 34 34 33 35
47 49 52 51 49 48 47 45 44 41 38 37 34 31 30 30 31 30 29 28 28 29 29 29 28 28 30 32 33 31 32 34
43 44 47 48 47 47 46 44 42 39 38 36 33 31 30 30 30 31 30 29 29 28 30 29 27 27 29 30 30 30 31 33
41 41 44 45 46 46 45 45 39 38 37 36 33 32 31 30 30 33 31 29 30 30 30 28 27 28 30 30 30 30 29 31
40 40 42 44 45 45 45 44 38 37 35 32 32 31 30 31 31 32 30 29 30 31 30 28 28 28 29 29 29 29 30 30
40 40 41 43 44 45 45 43 38 35 32 31 32 32 33 31 33 29 27 29 30 30 28 28 28 30 29 28 28 28 26 25
40 40 41 43 44 45 45 42 37 34 32 32 33 34 33 33 30 29 29 31 30 29 28 27 30 30 29 28 26 25 24 23
30 38 43 44 44 45 44 39 36 35 34 34 34 33 32 30 29 25 26 27 29 30 28 29 28 28 28 26 23 22 22 21
30 31 39 44 45 45 42 38 38 36 36 34 34 35 32 26 26 26 26 25 26 28 28 29 29 28 27 24 22 21 20 21
30 33 34 40 45 44 39 39 37 36 34 31 29 26 25 27 27 26 27 29 29 28 28 29 30 28 27 26 22 20 21 22

GFSFLT1_sfc_30mbdewp_036.txt.gz
Dewpoint
57 58 57 57 55 54 58 57 57 57 57 57 55 54 54 54 51 51 51 50 50 47 47 45 41 38 37 37 36 37 37 36
53 53 55 55 54 55 58 57 57 56 56 55 53 52 53 52 50 50 50 49 48 45 41 40 38 37 38 37 37 36 36 34
50 51 52 53 53 57 58 57 57 56 56 56 53 52 52 51 50 50 47 46 44 42 40 38 38 38 38 38 37 37 36 35
46 51 53 52 57 58 58 57 57 57 57 56 53 51 50 48 47 46 45 44 43 41 39 38 39 39 38 38 37 35 33 34
49 52 54 55 57 59 58 58 57 57 57 56 51 49 47 46 46 44 43 42 41 40 39 41 39 36 35 36 37 37 35 33
53 54 55 56 58 58 58 58 57 57 57 56 51 48 47 46 46 43 42 41 38 37 35 33 33 33 33 32 33 35 37 35
55 57 57 57 58 58 58 58 58 57 58 56 51 48 46 46 44 42 42 36 34 32 32 31 31 31 31 32 34 37 36 35
56 57 57 58 58 58 58 58 57 58 56 55 49 46 45 45 42 40 36 33 31 31 31 30 31 31 30 30 31 33 35 36
54 56 57 57 57 57 58 58 56 53 50 49 45 41 40 38 37 34 34 31 30 31 31 30 30 30 29 30 33 36 35 34
54 55 55 57 57 57 57 54 49 43 40 40 39 38 37 36 35 35 33 32 31 31 30 29 30 29 29 31 34 33 33 35
54 54 55 55 55 55 53 49 45 40 37 37 36 35 35 34 33 32 29 30 31 30 29 29 29 27 29 31 33 31 32 33
53 54 54 53 52 51 48 46 43 39 37 36 35 31 31 32 31 32 31 30 30 30 31 30 28 27 28 32 31 31 31 31
51 52 53 51 50 48 46 45 43 39 37 35 32 32 34 32 31 33 31 32 33 33 31 30 28 27 29 29 30 30 29 29
45 47 50 50 49 48 47 44 43 39 38 35 32 31 30 30 32 33 34 33 32 31 31 28 28 28 29 30 30 30 30 30
42 42 46 48 48 48 47 44 41 38 36 33 32 31 31 32 35 34 31 31 31 31 29 29 29 29 31 30 29 29 29 27
41 41 41 44 45 46 46 42 41 39 36 34 36 35 35 36 33 31 31 31 30 30 29 29 30 30 30 30 29 28 25 24
34 39 41 42 44 45 45 42 40 37 36 37 37 36 34 32 31 29 29 29 28 29 29 29 29 30 29 30 28 25 23 22
32 34 43 44 45 46 44 41 39 38 38 37 37 34 34 32 30 29 29 29 30 30 29 29 29 31 29 29 26 23 22 21
34 37 39 43 46 43 41 40 40 39 36 35 35 31 30 31 30 30 32 32 29 29 29 28 29 31 30 29 25 22 21 21

GFSFLT1_sfc_30mbdewp_039.txt.gz
Dewpoint
56 57 57 58 58 57 58 58 57 57 56 56 56 55 55 54 52 52 51 50 48 47 45 42 39 38 37 36 35 37 37 35
57 57 58 59 57 56 57 57 57 56 56 54 53 52 53 51 50 51 50 50 47 45 42 39 38 37 37 36 37 35 35 34
57 57 58 57 55 56 57 57 56 56 55 54 53 52 52 51 50 50 49 48 45 41 40 38 39 38 38 37 36 36 35 34
55 56 55 56 54 55 57 57 56 56 56 54 53 51 50 49 49 48 46 46 43 41 39 39 39 39 38 38 36 35 33 34
52 53 54 54 54 55 57 57 56 56 56 54 51 50 49 48 48 46 45 45 43 41 40 40 39 37 35 36 36 36 35 33
49 51 53 53 54 56 57 57 57 56 56 55 52 49 48 47 46 45 43 41 40 40 38 34 34 34 33 33 33 35 36 35
47 51 53 53 56 57 58 57 57 56 56 56 52 49 47 46 45 43 41 38 36 34 33 33 33 32 31 31 34 36 36 35
52 53 54 55 56 57 58 58 57 57 56 56 53 50 48 47 45 43 39 35 32 32 32 32 32 31 31 31 31 32 35 35
54 55 55 56 56 57 57 57 57 57 56 56 53 50 48 47 45 42 37 33 32 32 33 32 33 31 30 30 32 35 35 34
54 56 56 56 56 57 57 57 57 55 54 52 50 45 43 44 41 39 36 33 32 32 33 32 30 30 29 30 33 33 32 34
54 56 56 57 57 57 57 57 55 52 49 47 45 44 43 42 39 35 33 32 32 33 31 30 30 30 29 31 33 33 33 33
53 54 55 56 57 57 56 54 52 48 43 42 40 40 39 38 36 33 31 33 32 31 31 31 31 30 29 30 33 31 31 31
53 54 55 55 55 55 55 52 49 44 39 38 38 38 38 36 34 32 33 32 32 32 34 33 31 28 28 30 31 30 30 29
51 53 54 54 53 52 52 51 47 41 39 39 38 36 34 33 34 35 33 33 34 34 33 31 30 28 28 30 30 30 30 30
47 50 52 53 52 51 49 47 44 42 40 38 36 36 34 35 35 35 34 33 33 32 32 31 30 29 29 30 30 30 30 30
43 44 46 48 50 50 49 46 44 42 40 38 36 36 36 37 35 33 34 34 33 32 31 31 30 31 29 31 30 30 29 28
36 41 42 42 45 47 47 46 43 42 40 40 39 38 37 34 33 33 32 31 31 34 35 33 30 31 30 30 30 29 28 26
34 35 41 43 44 46 46 43 40 39 40 40 39 36 35 33 32 32 31 33 35 36 35 31 29 29 29 30 31 28 26 24
38 39 41 44 44 42 40 39 39 39 39 39 37 33 32 32 32 34 34 37 36 33 29 28 28 28 30 31 31 26 23 22

GFSFLT1_sfc_30mbdewp_045.txt.gz
Dewpoint
53 55 54 54 55 56 56 57 59 59 58 57 57 58 59 58 58 56 54 51 50 49 49 49 46 44 41 39 39 39 36 35
53 54 56 54 55 56 56 58 59 58 57 56 56 56 57 56 55 55 54 51 50 50 48 46 43 41 39 40 39 38 36 37
53 55 55 56 54 55 56 57 58 58 57 56 55 56 56 55 53 53 52 52 50 48 46 43 41 40 40 40 40 37 36 37
54 55 55 55 55 55 56 57 58 58 58 56 55 55 54 52 51 51 51 50 48 46 44 42 42 41 40 40 39 35 31 36
53 55 55 55 56 56 56 57 57 58 58 55 54 53 53 53 52 52 51 49 47 44 43 43 42 41 40 39 37 36 36 31
52 54 56 56 57 57 57 57 57 57 57 56 55 54 54 53 52 51 49 48 45 43 43 42 42 40 38 36 37 36 37 35
51 54 56 57 58 58 57 57 57 57 57 56 55 54 52 51 51 49 47 47 44 43 42 41 39 36 35 34 36 37 37 37
49 52 55 56 56 57 57 57 57 57 57 56 55 54 52 51 50 49 46 46 44 42 41 38 35 35 36 36 37 38 36 36
47 50 53 55 56 56 56 56 56 57 57 56 56 55 53 52 51 50 47 45 44 42 39 36 36 37 37 41 39 35 34 35
46 48 51 53 54 55 56 56 56 56 57 57 56 55 55 52 51 50 48 46 42 40 37 36 39 38 42 38 34 34 36 36
46 48 50 53 54 55 56 56 56 57 57 57 56 56 55 54 53 51 48 45 41 39 37 39 40 42 38 35 34 35 35 35
49 51 52 53 54 55 56 56 56 56 57 57 57 56 55 54 52 51 47 44 40 37 37 41 41 37 35 33 34 35 34 34
50 52 54 54 54 55 55 56 56 56 56 55 55 55 53 53 51 50 47 43 39 39 39 39 37 36 33 36 36 33 32 32
50 52 53 55 55 56 56 56 56 56 54 53 52 51 50 49 49 46 43 41 39 38 37 36 36 35 38 36 37 34 32 33
49 52 53 54 55 55 56 56 55 52 50 48 48 48 48 47 44 42 41 39 37 37 38 38 37 35 38 36 33 32 32 32
45 47 50 53 54 54 54 54 51 50 48 47 45 44 42 41 39 38 38 37 37 36 36 38 39 39 38 37 36 35 35 33
42 43 43 44 47 50 51 49 47 46 45 43 41 39 38 37 36 36 37 38 37 38 38 39 39 39 39 38 37 35 31 30
39 41 41 42 43 46 46 45 44 43 41 40 39 37 35 35 36 37 37 38 40 40 40 40 39 39 38 35 32 30 31 30
37 38 39 39 39 41 41 42 41 40 39 37 36 35 34 35 37 39 39 39 39 39 39 38 38 35 32 30 30 30 30 30

GFSFLT1_sfc_30mbdewp_048.txt.gz
Dewpoint
50 52 52 51 51 53 55 55 57 59 57 55 50 53 54 58 59 58 58 56 55 53 51 51 49 48 47 44 42 38 35 33
51 49 50 50 51 53 54 56 57 60 56 52 47 50 54 57 58 58 57 55 54 53 51 51 49 47 45 44 41 38 36 36
50 52 50 50 50 52 53 54 55 58 56 52 49 48 52 53 56 58 57 56 54 53 51 50 48 46 45 43 40 38 36 35
49 50 52 53 51 53 52 52 54 57 57 55 52 51 54 54 55 56 54 54 53 52 51 48 47 45 44 43 41 38 36 36
48 50 52 52 53 52 53 53 54 57 58 55 52 48 50 53 55 55 54 54 53 51 49 47 47 45 43 42 40 37 35 36
45 49 52 53 53 54 53 53 54 56 57 57 54 50 49 53 56 55 54 53 52 49 47 46 47 44 44 41 38 37 38 37
45 46 50 52 54 54 56 54 54 55 57 58 57 55 52 52 55 55 54 52 51 48 46 46 45 44 43 40 39 40 38 37
46 46 49 52 54 56 57 56 54 55 56 57 57 57 57 55 54 54 54 52 49 48 47 46 45 44 41 39 41 41 38 37
45 47 48 51 54 57 57 56 55 55 57 57 58 58 58 57 56 55 54 51 49 48 47 46 44 41 40 40 40 42 38 36
42 44 47 51 54 56 57 57 55 55 57 58 58 58 58 57 56 55 52 50 49 49 46 45 41 38 39 42 42 39 36 36
40 42 45 49 53 55 57 57 56 56 57 58 58 57 57 57 57 53 52 51 50 48 45 43 40 40 41 42 38 38 39 38
44 45 47 49 51 54 56 56 56 56 57 57 58 57 57 57 56 55 54 53 51 46 45 42 40 41 41 38 39 39 37 38
46 49 50 50 52 52 53 54 54 55 56 57 57 57 57 56 56 56 55 51 48 45 43 41 43 40 39 39 39 38 38 37
46 49 51 52 53 53 54 55 55 55 56 56 56 55 55 54 53 51 49 48 45 41 42 42 39 39 38 40 39 40 40 39
45 49 50 52 54 55 55 56 57 56 54 53 52 52 51 50 49 47 45 44 42 41 40 40 40 40 39 39 41 40 39 37
45 47 50 52 54 55 55 56 55 54 52 50 49 48 47 46 46 45 43 40 39 39 40 39 40 40 40 40 39 39 38 39
44 45 46 46 48 50 51 51 50 50 49 47 45 44 43 42 40 39 39 38 38 38 38 39 40 40 40 39 39 39 38 36
41 41 42 44 46 48 47 47 47 46 44 42 41 39 38 38 37 37 37 39 41 41 41 41 41 41 40 39 39 35 31 29
39 40 41 42 44 44 44 44 43 42 41 39 38 37 37 37 37 39 40 40 40 40 39 40 39 38 37 34 31 29 29 28

GFSFLT1_sfc_30mbdewp_054.txt.gz
Dewpoint
50 51 50 50 50 51 51 50 50 49 48 50 51 53 54 53 51 54 58 58 59 58 57 57 55 54 53 52 50 50 48 42
49 49 49 48 49 51 50 50 51 50 53 52 52 53 52 51 52 54 58 58 59 58 58 57 56 55 53 53 51 49 44 41
50 49 49 50 51 51 51 51 48 50 54 55 51 51 52 52 52 56 58 59 59 59 59 56 56 55 53 52 51 47 45 43
48 49 49 50 53 54 54 54 53 54 55 55 53 50 50 51 51 55 57 58 58 58 58 56 56 55 53 53 51 48 45 45
48 49 50 51 52 53 53 54 54 55 56 54 52 49 46 48 49 54 56 58 58 57 57 57 56 55 53 53 52 49 48 44
47 48 50 51 52 53 53 53 53 54 56 57 55 51 49 47 51 51 56 59 59 58 57 56 55 54 53 52 50 49 48 45
46 48 48 49 51 53 53 53 53 53 56 57 55 53 51 50 51 53 57 58 58 58 56 56 56 54 53 53 51 50 47 46
42 46 48 49 49 51 53 53 52 53 53 54 55 55 55 52 52 54 56 57 57 57 57 55 55 54 53 51 51 48 47 43
39 42 47 49 51 52 52 52 53 52 53 54 56 56 57 56 55 53 56 56 56 57 57 56 54 53 52 50 49 45 45 46
39 40 43 47 50 52 54 53 52 51 53 55 56 58 59 59 59 57 56 57 57 57 57 53 52 51 51 47 46 46 46 44
33 38 41 45 50 53 55 55 54 53 54 56 57 58 58 58 56 59 59 58 56 54 53 52 51 51 47 46 46 43 42 43
36 37 40 44 48 52 56 56 55 56 57 58 57 57 57 58 60 59 60 57 56 54 53 52 51 47 46 44 43 42 41 42
40 40 41 42 46 52 55 56 57 58 58 59 58 58 59 59 59 59 58 56 55 54 52 49 47 46 43 42 42 42 41 40
42 44 45 45 46 48 55 57 57 57 57 58 58 59 58 56 55 54 53 52 49 48 47 46 44 44 42 42 41 40 40 39
39 44 46 48 49 51 53 55 56 57 57 57 57 55 54 53 51 50 48 47 46 46 45 44 43 42 42 41 40 39 40 41
33 42 47 50 51 52 54 57 56 55 55 54 53 52 51 50 48 46 45 44 44 43 42 42 41 41 41 40 40 41 41 41
28 37 45 49 51 53 56 55 55 54 52 52 51 50 50 49 47 45 43 42 42 42 41 41 41 40 40 40 41 41 40 39
31 38 45 51 53 56 55 54 54 52 50 50 48 47 45 44 44 42 41 42 42 41 41 41 41 41 40 40 40 39 39 39
41 47 50 53 53 52 51 50 49 47 46 44 44 43 41 41 41 41 41 41 41 41 41 40 40 40 40 39 39 38 32 31

GFSFLT1_sfc_30mbdewp_057.txt.gz
Dewpoint
51 51 51 52 53 53 53 53 53 53 54 52 50 50 51 53 53 54 56 57 57 57 56 57 57 53 52 52 50 50 49 44
51 50 51 51 51 52 52 51 51 51 50 48 47 48 47 53 53 52 55 57 57 58 57 57 57 54 52 52 51 49 48 45
50 50 50 49 50 51 51 50 48 47 47 48 49 49 49 50 53 53 56 57 58 58 58 58 57 54 54 52 50 49 47 43
49 48 49 48 50 50 48 49 48 48 48 50 52 52 52 53 52 51 57 58 58 58 59 58 56 55 54 53 51 48 46 45
48 48 48 48 49 50 49 50 49 49 52 53 52 51 49 51 51 51 55 58 58 58 58 58 57 56 54 53 52 50 47 45
49 48 48 49 50 50 50 51 48 48 49 53 54 53 50 49 51 51 54 57 58 58 58 57 56 56 55 53 52 50 49 47
49 49 49 49 51 53 53 52 52 49 51 54 55 55 51 48 48 50 55 57 58 58 58 57 56 55 54 53 53 51 51 49
48 48 50 50 50 53 53 53 54 54 54 55 55 56 55 51 49 50 54 57 57 57 58 56 56 55 55 54 53 52 51 46
47 48 49 50 50 52 52 52 52 53 53 55 56 56 56 55 54 54 55 56 57 58 58 57 56 55 54 53 52 51 48 45
46 47 48 48 50 50 52 52 52 53 53 55 56 56 55 57 56 56 57 58 57 57 58 57 56 55 53 52 49 47 47 46
40 47 48 48 48 50 50 52 53 52 53 53 54 57 57 58 58 57 58 57 56 56 56 55 54 52 50 48 47 46 45 44
37 39 45 49 49 50 50 50 52 53 53 54 54 58 59 59 58 57 56 56 55 55 54 53 51 50 48 47 45 44 43 43
38 40 42 45 48 50 51 53 53 54 54 57 57 58 58 58 58 57 59 57 56 55 53 52 49 47 45 44 43 42 42 42
41 43 44 45 49 49 52 54 56 57 59 58 58 57 58 58 57 56 55 53 52 51 50 48 46 45 44 43 43 42 42 40
42 44 45 47 49 54 57 58 60 58 59 58 58 56 55 53 51 51 50 49 48 47 46 45 44 43 43 42 42 41 40 40
43 45 46 49 52 56 55 56 57 57 56 55 53 52 51 49 48 47 46 46 46 45 44 43 43 42 42 41 41 40 40 40
42 45 48 50 54 55 54 54 53 54 53 52 51 50 49 47 46 45 44 43 43 42 42 41 41 40 40 40 40 40 41 40
29 46 50 52 55 55 54 53 52 52 51 51 50 49 47 46 44 43 42 41 41 40 40 40 40 40 40 40 41 40 39 38
45 47 52 55 56 55 54 52 51 50 49 47 47 45 45 43 42 42 41 41 40 40 41 41 40 40 40 40 39 38 37 32

GFSFLT1_sfc_30mbdewp_060.txt.gz
Dewpoint
51 50 52 52 53 54 53 53 53 52 52 53 54 54 53 53 51 52 55 56 57 56 56 56 57 56 53 51 49 49 48 47
51 50 51 52 53 53 53 52 52 53 52 52 51 51 52 53 53 53 54 56 56 56 56 56 57 55 53 51 50 49 49 47
50 50 51 51 52 53 53 52 52 52 52 51 50 50 50 50 53 53 53 55 57 57 57 57 57 55 53 52 50 49 49 45
49 50 50 51 51 52 52 51 51 51 51 49 49 49 50 48 49 51 53 53 56 57 57 57 57 56 54 52 51 49 48 46
49 49 49 49 50 51 52 51 50 50 49 48 48 47 46 46 46 48 50 55 57 57 57 58 57 56 55 54 53 51 48 47
50 49 49 49 49 50 50 50 49 49 48 47 48 48 47 47 49 51 52 54 57 58 58 58 57 57 56 54 53 52 50 49
49 49 49 48 49 50 48 48 50 47 47 48 50 50 49 49 50 51 52 52 55 57 58 58 58 57 56 55 55 53 51 49
48 48 47 47 48 50 49 48 49 48 47 48 52 52 52 53 49 49 51 52 55 56 57 57 57 57 56 56 55 53 52 50
48 48 48 48 48 49 49 49 49 49 47 48 49 53 54 55 53 50 50 52 54 56 57 57 57 57 56 56 54 53 51 50
48 49 48 48 49 50 50 50 50 51 49 48 49 52 54 55 56 54 53 55 56 57 57 57 57 56 57 55 53 50 49 48
47 48 49 49 49 50 52 52 52 52 53 53 53 54 55 56 57 55 55 57 57 57 57 57 57 57 55 53 50 48 47 46
45 48 48 49 50 50 51 53 53 53 54 54 54 55 56 58 58 58 58 57 56 55 56 56 55 54 51 49 48 46 46 44
40 45 48 48 49 50 51 51 53 53 54 55 55 57 58 58 58 58 58 56 55 55 55 54 52 50 48 47 46 45 44 43
38 40 42 47 49 48 49 51 51 54 56 56 57 58 58 58 58 58 58 56 55 54 53 52 50 48 46 45 44 44 43 43
38 43 44 47 48 48 50 51 52 55 57 57 57 57 57 58 57 56 55 54 53 51 50 48 46 44 44 43 43 43 42 42
40 42 45 51 53 53 53 55 55 57 57 57 57 57 56 54 52 51 50 49 48 47 46 45 44 43 43 43 42 41 40 40
41 43 46 53 54 54 55 56 57 58 57 56 53 52 51 50 48 48 47 46 45 44 44 43 43 42 42 41 41 40 39 40
40 44 47 54 54 54 54 54 55 55 54 52 51 50 48 47 46 45 44 43 43 43 42 42 41 41 40 40 39 40 40 39
34 44 48 54 55 54 53 53 53 52 51 50 49 48 46 45 44 43 43 42 41 40 40 39 39 39 40 40 39 37 33 31

GFSFLT1_sfc_30mbdewp_063.txt.gz
Dewpoint
51 51 52 53 54 55 55 55 55 54 54 54 54 54 53 53 54 55 55 55 54 53 53 54 55 54 53 53 50 49 48 45
51 50 52 53 54 54 53 53 53 52 52 52 52 52 52 52 52 53 55 56 57 56 56 55 56 55 54 53 51 49 48 47
50 50 51 52 53 53 52 52 52 52 52 51 51 52 52 51 52 53 53 54 55 57 56 56 56 55 54 52 50 49 49 46
50 50 50 51 52 52 52 52 52 52 51 51 49 50 50 49 49 52 52 53 55 56 56 56 56 56 54 52 51 50 48 48
50 50 49 50 51 51 52 52 52 52 52 49 49 48 48 48 47 49 50 52 53 54 56 57 56 56 55 54 53 51 50 48
50 49 50 50 51 51 52 52 51 51 51 49 49 48 48 48 47 47 47 50 53 55 56 56 56 56 56 55 54 52 51 51
50 49 49 49 50 51 52 51 50 50 50 49 49 48 47 47 46 47 48 50 52 55 56 57 57 57 56 56 55 54 53 52
50 49 49 49 49 50 50 51 50 50 49 49 48 48 48 48 47 48 47 49 51 53 55 56 57 57 57 56 56 55 54 52
49 49 49 49 48 49 50 49 50 50 49 48 48 48 49 49 50 48 49 50 50 52 54 56 57 57 57 56 56 55 54 52
48 49 49 48 48 48 49 48 48 49 49 48 48 48 50 49 51 54 53 52 52 53 54 56 56 56 56 56 57 56 53 52
47 48 48 48 47 47 49 49 46 47 49 47 47 48 49 52 53 54 55 54 55 55 56 56 56 57 57 57 57 53 51 49
46 48 48 48 48 48 48 49 49 48 48 49 47 47 49 51 54 55 56 56 57 57 56 57 57 57 56 54 52 50 49 47
42 47 49 49 48 48 49 49 49 50 51 51 51 51 53 54 55 56 57 57 57 57 56 56 55 54 53 52 49 48 47 45
39 44 48 48 49 49 49 50 51 51 54 54 55 56 57 57 57 57 58 58 56 56 56 54 53 51 50 48 47 46 45 45
37 41 46 48 49 50 50 51 51 53 55 55 55 56 57 56 57 57 58 57 56 55 54 53 51 48 47 46 45 44 44 43
36 40 41 44 48 49 49 50 52 53 54 55 55 56 56 57 57 57 55 55 54 53 50 48 47 46 45 44 44 43 42 42
35 41 43 45 48 49 49 50 52 54 55 55 55 55 56 56 55 52 51 50 48 47 47 46 45 44 43 43 42 42 41 40
30 39 43 47 51 52 52 53 53 54 54 55 55 56 53 52 50 49 47 46 46 45 44 44 43 43 42 41 41 40 40 40
28 34 44 48 54 54 54 56 56 56 56 55 54 52 50 49 48 46 45 44 43 43 43 42 42 41 40 39 39 37 34 31

GFSFLT1_sfc_30mbdewp_066.txt.gz
Dewpoint
50 52 53 54 54 55 56 56 56 56 56 56 56 56 56 58 57 55 54 53 53 53 52 52 51 51 51 51 50 49 47 44
51 50 53 54 54 54 55 55 55 55 55 55 54 53 54 55 55 55 54 54 54 53 53 53 53 51 51 52 51 49 48 46
50 50 51 53 53 54 54 54 53 53 53 54 54 54 52 53 54 54 55 55 56 56 54 54 55 55 54 53 51 50 49 46
50 49 49 50 52 53 52 52 52 52 52 51 51 54 51 50 51 52 53 55 56 56 57 56 56 56 55 53 52 50 49 48
50 49 49 49 50 53 52 52 52 52 51 51 49 52 50 49 48 50 51 53 53 54 56 56 56 56 55 54 52 51 50 48
50 50 50 50 50 52 51 52 52 52 51 50 49 49 50 48 48 47 48 50 52 52 53 54 56 56 55 55 54 52 51 50
50 50 50 50 50 51 50 51 51 51 51 50 49 49 48 48 47 47 47 48 49 52 53 53 54 55 55 55 55 54 53 52
50 49 49 49 49 50 50 50 51 51 51 51 49 49 48 48 47 47 47 47 48 50 52 54 54 55 56 56 55 54 54 53
49 49 49 49 49 50 51 51 51 50 50 50 50 49 49 48 48 48 48 48 48 49 51 53 54 55 56 55 55 55 55 55
49 50 49 49 49 49 50 50 51 50 50 50 49 49 49 49 49 50 49 49 50 50 51 52 53 55 55 56 56 55 55 55
48 49 50 49 49 49 49 50 50 50 50 50 50 49 49 50 50 50 52 53 53 52 52 52 53 54 55 56 56 56 56 55
46 48 50 50 49 48 48 49 49 49 50 50 49 49 49 50 51 52 53 54 55 54 54 55 55 56 55 55 56 55 54 52
44 47 48 49 49 48 48 48 49 49 49 50 49 48 48 48 49 50 52 52 54 55 56 55 56 56 56 55 54 52 52 49
41 46 48 48 49 48 48 48 48 49 49 50 50 48 48 48 48 49 51 52 53 54 56 56 56 55 54 54 53 51 50 48
34 40 46 48 49 49 49 49 49 49 50 50 50 50 49 49 49 51 53 55 56 56 56 56 55 53 52 51 49 48 46 46
30 36 42 47 48 49 50 50 50 50 50 51 51 52 52 51 52 53 53 56 57 57 55 53 51 50 49 48 47 45 44 43
29 34 38 42 47 48 49 50 51 51 51 52 53 53 54 54 55 55 55 56 56 55 53 52 49 48 47 46 45 44 43 42
29 30 37 40 42 47 49 50 51 52 52 53 53 54 54 55 56 56 54 54 52 50 49 48 46 44 44 43 43 42 41 40
31 30 35 40 45 49 50 51 51 52 52 53 54 54 55 54 52 52 50 48 48 47 46 44 43 41 41 41 40 38 36 35

GFSFLT1_sfc_30mbdewp_069.txt.gz
Dewpoint
51 52 52 52 55 57 57 57 57 58 58 58 58 59 59 59 59 58 55 53 53 53 52 51 52 53 52 51 49 49 45 42
51 52 52 51 53 55 56 56 56 56 56 56 56 55 56 58 58 57 55 54 53 53 52 52 53 52 52 53 52 51 49 47
51 51 51 52 52 54 55 55 55 56 56 55 54 55 55 55 57 57 55 54 53 53 52 53 53 54 54 53 53 52 52 49
50 50 51 52 51 52 53 55 55 55 55 54 55 54 54 55 55 56 56 54 54 54 54 54 55 56 54 55 54 53 52 51
51 50 49 50 51 52 54 54 53 54 54 53 54 52 51 52 54 54 55 56 56 57 56 57 56 57 57 56 56 55 54 52
51 50 50 49 50 51 53 53 53 53 53 52 53 53 52 53 52 53 53 55 56 56 56 56 56 56 57 57 56 55 54 53
50 51 50 50 50 51 52 52 52 53 52 52 51 52 52 49 49 50 51 53 54 54 53 55 55 56 56 57 57 56 55 54
49 50 50 50 50 50 51 51 51 52 52 51 51 51 52 51 49 49 49 49 49 51 54 54 54 55 55 56 56 56 56 55
48 50 50 50 50 51 50 50 50 52 52 51 51 51 50 50 51 49 49 49 49 50 52 52 53 54 55 55 56 56 56 56
47 49 50 50 50 50 50 50 50 51 52 51 51 50 50 50 50 51 51 50 51 51 51 52 53 54 54 55 55 55 56 56
46 49 50 50 50 51 51 51 51 51 51 51 51 51 50 51 51 50 50 51 51 50 51 51 51 52 54 54 55 56 56 56
45 47 50 50 50 50 50 50 50 51 51 51 51 51 51 50 50 50 51 51 52 52 51 51 51 52 53 54 55 56 56 56
42 46 49 50 50 50 50 50 50 51 52 52 51 51 51 50 50 50 51 51 52 52 52 52 52 53 55 55 55 55 55 54
39 44 47 49 50 50 49 50 50 51 51 52 51 51 51 50 51 51 52 52 52 54 54 53 53 53 54 56 55 55 54 53
33 39 45 48 49 50 49 50 50 51 50 51 51 51 51 51 51 51 51 51 52 52 52 54 54 54 54 55 55 54 52 51
29 32 38 45 48 49 49 50 50 50 50 50 50 51 51 50 50 50 50 50 51 52 53 55 56 56 54 54 52 51 49 46
31 31 34 39 46 49 50 50 50 50 50 50 50 50 51 50 50 50 50 51 52 54 56 56 53 53 52 51 50 48 46 44
32 33 32 36 41 47 49 50 51 51 50 50 51 51 51 52 51 51 51 53 54 55 55 54 52 51 48 47 47 46 43 42
31 33 34 35 39 44 48 50 51 51 51 51 51 52 52 52 53 53 54 55 55 54 52 51 48 45 45 44 43 42 40 37

GFSFLT1_sfc_30mbdewp_072.txt.gz
Dewpoint
51 52 51 52 54 56 58 58 59 58 58 58 59 59 59 60 59 57 55 51 51 47 47 51 51 48 48 47 46 45 44 42
51 53 52 53 53 55 57 57 58 58 58 57 56 57 58 59 58 58 56 52 50 49 47 51 53 51 50 51 51 50 47 46
51 52 52 52 53 54 56 57 57 57 57 57 57 56 58 58 58 58 56 54 50 52 52 53 53 53 53 53 53 52 52 51
51 52 52 51 52 53 54 56 57 57 58 58 57 57 57 57 57 57 57 55 52 53 54 53 54 53 53 54 54 53 53 53
50 51 51 51 51 52 53 54 55 56 56 55 54 54 53 55 55 56 57 56 54 54 54 54 54 54 53 55 56 54 53 53
48 50 51 51 50 52 53 54 54 55 55 55 54 52 52 54 55 55 55 57 57 54 55 55 54 55 56 55 56 55 54 53
47 49 51 50 50 51 53 53 53 54 55 55 54 53 52 53 54 54 55 56 56 56 55 55 54 56 55 53 56 57 55 54
45 48 50 50 50 51 51 51 51 53 54 54 54 54 54 53 53 53 53 54 54 53 55 55 54 52 54 54 53 53 53 53
44 46 49 50 51 51 51 50 50 51 53 53 53 53 54 53 53 52 53 52 52 53 54 54 53 53 53 54 54 53 53 54
42 45 49 50 51 51 51 49 49 50 52 53 52 52 53 53 53 52 52 52 52 53 53 54 54 52 53 54 53 53 53 54
40 44 48 49 51 51 52 50 48 49 51 52 52 52 52 52 52 53 52 52 51 52 52 53 52 51 51 51 51 51 51 52
39 43 46 49 50 51 52 51 49 49 51 51 51 51 51 52 53 53 53 53 52 51 51 52 50 49 49 50 50 51 50 51
35 43 46 48 49 50 51 51 50 50 51 52 52 52 51 51 52 53 54 53 53 52 51 50 49 49 51 51 51 51 51 52
32 41 45 47 48 49 50 51 51 51 51 52 52 52 52 52 52 52 52 52 52 52 51 51 50 51 51 51 52 52 52 55
30 33 41 45 47 49 49 50 52 52 52 52 51 52 52 52 51 51 51 50 50 50 51 51 52 52 52 52 54 54 54 53
29 31 33 40 45 48 49 50 51 52 52 52 52 52 52 51 51 51 51 51 51 51 51 52 53 54 53 53 53 53 53 54
30 31 32 34 38 45 48 49 50 51 51 51 52 52 52 52 51 51 51 52 51 51 51 51 51 53 53 52 54 55 53 51
31 31 32 34 35 40 45 48 50 50 51 51 51 51 51 52 52 51 51 51 51 51 51 51 52 53 54 53 53 54 51 48
33 32 32 32 35 37 42 44 48 50 50 50 50 50 51 51 51 51 51 51 51 52 53 53 55 56 52 50 48 49 45 43

GFSFLT1_sfc_30mbdewp_075.txt.gz
Dewpoint
47 49 48 49 52 56 58 59 59 59 59 59 59 59 59 59 59 57 54 54 53 51 50 51 50 49 47 45 46 45 43 41
47 50 50 50 52 54 56 58 59 58 58 58 57 57 57 58 58 56 55 51 51 50 49 52 51 46 46 49 48 47 46 45
46 51 51 51 52 53 56 58 58 58 58 58 57 56 57 58 59 57 54 54 51 50 50 52 52 49 51 52 52 50 49 49
46 49 51 52 51 53 54 57 58 57 57 57 57 58 57 57 57 58 56 55 53 48 50 53 54 54 54 55 55 53 52 52
45 48 50 52 51 52 54 56 57 58 58 57 57 55 55 55 56 56 57 56 55 50 53 54 56 55 55 56 56 55 53 52
43 47 49 51 51 51 52 55 56 57 58 58 56 55 55 56 57 55 55 56 55 54 54 55 54 54 55 56 56 55 55 52
42 46 49 50 50 51 52 54 55 56 56 56 56 56 55 55 56 55 54 56 56 55 54 54 54 54 54 54 54 55 56 53
39 45 48 49 50 51 51 52 53 55 55 56 56 55 55 54 55 55 55 53 55 55 54 53 52 52 53 53 54 55 54 53
37 42 47 48 50 51 51 50 50 52 55 55 55 55 54 54 54 53 54 54 54 55 55 53 52 52 53 54 53 54 53 54
36 40 45 48 50 51 51 49 49 50 53 54 54 55 55 54 54 55 54 53 54 54 54 53 53 53 53 54 54 53 53 53
32 39 43 47 49 51 52 50 48 49 51 53 53 54 54 55 55 55 55 55 55 55 55 54 53 52 53 53 53 52 53 54
33 39 42 46 48 51 52 52 48 48 50 52 52 53 53 55 55 55 55 55 55 55 55 54 53 52 53 53 52 53 52 53
30 36 40 44 48 49 51 52 50 48 51 52 53 53 52 53 54 55 56 55 55 54 54 54 53 52 53 53 53 52 52 51
28 33 40 44 46 48 50 52 51 51 49 51 54 54 54 53 54 55 54 55 55 54 53 53 53 53 53 53 52 52 52 51
27 28 32 41 46 47 49 51 52 52 50 50 52 54 54 54 54 54 54 54 54 54 54 53 53 52 52 51 51 51 52 52
29 29 29 32 41 46 48 49 51 52 52 52 52 54 54 53 53 53 53 54 54 54 54 54 54 54 52 52 52 52 52 52
31 31 31 31 32 42 45 48 50 52 52 53 53 53 53 53 54 54 53 53 53 53 53 53 53 53 52 51 52 52 53 53
37 37 36 34 33 35 37 44 48 50 52 52 52 53 53 54 53 53 53 53 53 53 52 52 52 53 51 51 51 53 52 53
38 38 39 37 36 34 35 37 43 49 50 51 51 52 53 53 53 53 53 53 53 54 54 54 53 53 51 51 50 52 53 54

GFSFLT1_sfc_30mbdewp_078.txt.gz
Dewpoint
45 46 48 48 54 58 58 60 59 60 60 59 58 57 59 59 58 57 57 57 56 56 57 57 55 54 52 49 49 48 46 46
46 47 49 49 54 57 58 58 58 59 58 58 57 56 57 59 59 58 58 56 55 54 52 53 52 51 48 48 49 46 46 47
45 48 50 50 53 56 58 58 58 58 58 58 57 57 57 57 58 55 55 55 54 53 52 52 50 49 48 51 50 49 49 49
44 49 51 51 53 54 56 57 58 58 58 58 57 57 57 56 57 56 55 55 53 52 53 53 52 51 52 52 52 51 50 49
44 48 51 52 52 54 55 57 57 58 58 57 57 55 55 55 55 56 55 55 54 51 53 54 54 54 54 54 55 55 54 51
41 47 50 52 52 54 54 56 55 57 57 57 57 56 55 55 56 57 56 55 55 55 52 55 55 56 56 56 56 56 55 54
38 46 49 51 52 53 54 54 56 56 57 57 56 56 55 55 56 56 56 55 55 55 55 56 57 56 57 57 56 57 56 53
36 45 48 50 52 52 54 55 54 56 57 57 57 56 55 56 55 55 54 55 54 54 55 55 55 55 55 56 56 56 55 52
36 42 48 49 52 52 52 54 53 56 57 57 57 56 56 56 56 55 53 52 53 53 55 54 54 53 53 53 53 54 54 54
34 38 47 49 51 53 52 52 52 54 55 55 56 57 56 55 56 56 56 54 52 52 53 54 54 52 52 52 52 53 54 54
34 37 46 49 51 53 53 51 51 52 55 55 55 54 56 56 55 55 55 55 54 51 51 54 54 52 51 51 51 52 53 53
32 36 42 48 50 52 54 52 50 51 54 55 55 55 55 55 55 55 55 55 55 54 53 53 54 53 52 51 51 51 52 52
33 36 39 46 49 51 53 53 51 50 52 54 55 56 55 55 56 56 56 56 56 54 54 54 54 53 52 52 51 51 51 51
30 30 37 40 47 49 51 53 53 52 51 53 54 54 55 55 55 56 56 56 55 56 55 54 54 53 52 52 51 51 51 51
29 30 32 39 43 48 49 52 54 53 52 51 53 54 54 54 54 55 56 56 56 55 55 55 55 54 53 52 51 51 51 52
36 37 38 38 38 47 48 50 53 54 53 52 51 53 54 55 54 55 55 55 56 55 55 54 54 54 53 53 52 52 52 52
38 38 39 40 40 39 44 49 51 53 53 53 52 52 53 54 55 55 54 55 55 55 55 54 54 53 52 51 52 52 52 52
38 38 40 44 45 46 40 37 46 51 53 53 53 53 53 53 55 54 54 54 54 54 54 54 54 54 52 51 50 52 52 52
38 41 44 47 49 49 50 49 41 42 50 52 53 54 53 54 54 54 54 54 54 54 54 54 54 54 53 51 49 51 52 53

GFSFLT1_sfc_30mbdewp_081.txt.gz
Dewpoint
44 47 52 57 58 59 60 60 60 60 59 58 58 59 59 59 59 59 59 59 58 58 57 57 55 54 53 50 49 48 48 49
45 48 49 56 57 58 58 57 59 59 58 57 56 57 58 58 58 58 57 57 57 57 57 57 57 55 51 49 49 47 46 47
45 48 50 55 57 58 57 57 59 59 58 58 57 57 57 57 57 55 57 57 54 54 56 55 55 52 51 49 47 48 45 48
46 48 50 55 56 57 57 56 58 57 58 58 57 57 58 57 57 56 57 56 55 54 54 55 53 52 49 49 48 47 45 49
47 49 49 53 56 57 57 58 57 57 58 57 57 56 55 56 56 54 55 56 55 53 53 53 52 52 50 51 51 48 49 47
48 50 50 51 54 55 56 58 57 58 58 57 56 56 55 55 56 54 54 55 55 53 54 54 52 54 53 53 53 53 53 50
48 50 52 51 54 54 56 56 56 57 57 57 56 56 55 55 55 55 53 54 54 54 53 55 54 55 55 55 55 55 54 52
47 50 52 52 53 53 55 55 54 57 57 57 57 56 55 55 55 54 54 54 53 53 54 55 55 56 56 57 56 56 56 54
47 50 51 52 53 53 53 54 55 55 57 57 56 57 56 55 55 55 54 54 53 52 54 55 56 56 56 56 56 56 55 54
47 49 50 52 52 53 54 54 54 55 55 55 56 56 56 55 55 55 55 55 54 54 52 55 55 55 55 55 54 54 55 54
39 48 49 51 53 52 53 54 54 55 56 56 56 56 56 56 56 55 55 54 53 54 53 53 54 54 53 53 53 52 53 53
33 41 49 50 53 53 52 53 53 53 56 56 55 56 57 57 56 56 56 56 54 52 53 53 53 54 53 52 51 50 51 51
32 37 48 51 52 53 52 52 52 52 55 55 55 54 54 55 56 56 56 56 56 54 53 51 51 53 53 52 51 50 49 50
38 38 39 44 51 53 53 52 51 51 54 55 55 54 54 54 55 55 55 56 56 55 55 53 51 51 52 52 51 50 50 50
38 39 41 42 43 50 53 54 53 52 52 55 55 55 55 55 55 55 55 55 55 55 55 54 54 53 52 51 51 51 50 50
38 40 43 45 47 49 50 50 54 54 52 52 53 55 55 56 55 55 56 56 56 55 55 55 54 54 54 53 52 52 51 50
39 44 47 48 48 48 49 50 51 55 53 52 52 53 54 54 55 55 55 56 56 56 56 55 55 54 54 53 53 52 52 51
46 47 46 45 45 45 46 48 50 51 51 54 53 53 53 54 55 55 54 54 55 56 56 55 55 55 53 52 51 53 52 52
45 45 43 43 42 42 44 47 46 47 48 50 52 55 54 53 53 54 55 55 54 54 55 55 55 55 53 51 50 52 53 53

GFSFLT1_sfc_30mbdewp_084.txt.gz
Dewpoint
46 54 58 60 60 61 60 60 59 58 57 57 59 59 60 60 60 60 61 60 59 54 52 53 53 46 50 52 50 50 49 49
46 54 57 59 59 59 59 59 60 58 57 56 55 56 58 59 59 60 60 60 60 57 54 55 54 49 50 51 49 49 48 49
47 54 57 57 58 58 58 59 59 58 57 57 57 57 58 58 58 59 59 59 58 58 54 56 53 54 51 50 48 48 48 48
47 52 55 56 57 57 56 57 59 59 58 57 57 57 57 57 57 57 58 57 57 58 56 56 56 55 51 50 49 47 46 48
46 49 54 56 56 56 56 56 58 58 58 57 56 55 53 54 56 56 57 57 55 55 56 55 55 54 52 50 49 47 47 47
46 48 53 55 57 56 56 56 55 56 58 57 56 55 56 56 55 54 55 56 55 54 55 54 54 56 53 51 50 49 48 48
47 47 52 55 57 57 56 56 55 55 57 57 57 56 56 56 55 54 54 54 55 54 54 54 53 56 55 53 52 50 50 48
47 48 51 53 55 56 56 56 55 56 57 57 57 56 55 55 55 54 52 53 54 54 53 54 53 54 54 53 54 53 53 51
47 49 50 52 53 55 55 56 56 57 57 57 57 56 55 55 56 55 53 52 53 53 54 54 55 54 55 54 54 54 55 54
48 50 50 52 52 54 55 54 54 56 56 56 57 56 56 55 55 55 55 53 52 52 53 55 55 56 55 56 55 55 55 55
49 51 51 52 53 53 55 54 54 55 55 56 56 57 56 56 55 55 55 54 53 52 52 54 55 55 55 55 55 55 55 55
47 50 51 52 53 53 53 54 55 54 55 55 55 55 56 56 55 55 55 55 54 53 53 52 53 54 54 54 54 54 54 54
42 48 50 52 52 53 54 54 53 55 55 55 54 55 55 56 56 56 56 55 55 54 53 53 52 52 54 53 53 52 52 52
43 45 47 50 53 53 52 53 54 54 56 56 55 56 56 56 56 56 56 56 56 55 53 53 53 52 52 53 52 52 51 50
45 47 48 48 49 52 53 53 53 53 54 55 55 55 55 55 55 56 56 56 56 56 55 53 52 52 52 52 52 51 50 50
46 46 45 45 45 46 48 50 53 54 53 55 55 55 55 55 54 54 55 55 56 55 55 55 54 53 51 51 52 52 51 50
44 43 43 43 43 44 46 47 49 51 53 55 55 55 55 55 55 55 55 55 54 55 55 55 55 54 53 50 51 51 51 51
41 41 41 40 40 41 44 44 45 46 47 48 52 51 54 55 56 56 55 55 55 55 55 55 55 55 53 52 51 52 52 52
40 39 38 37 37 38 40 41 41 42 42 45 46 46 47 48 50 55 55 55 55 55 56 55 55 55 54 52 51 52 53 53

GFSFLT1_sfc_30mbdewp_087.txt.gz
Dewpoint
41 55 58 59 60 60 59 58 57 56 57 58 59 60 60 61 61 61 62 61 58 55 54 53 51 49 51 50 49 49 51 51
44 56 59 60 60 59 58 58 57 56 55 56 57 57 58 59 60 61 61 60 57 55 55 53 50 48 50 51 49 48 50 51
49 56 58 59 59 58 58 58 56 56 56 55 56 57 58 59 59 60 61 60 57 54 55 52 50 47 51 51 48 48 49 50
49 55 57 58 57 57 57 57 57 57 57 56 57 57 57 57 57 58 59 60 59 56 56 53 53 47 51 51 49 48 47 48
48 53 56 57 57 58 58 57 57 57 57 56 56 55 55 56 56 57 58 58 59 58 56 57 54 53 51 51 50 48 48 48
46 52 54 56 57 56 56 57 56 56 57 56 56 56 55 55 56 56 57 57 57 58 57 56 56 55 53 51 50 49 49 49
45 49 54 55 56 55 56 55 56 56 56 57 56 56 54 55 55 55 56 56 56 56 56 56 55 55 53 52 51 50 49 49
44 47 53 55 55 55 55 54 54 55 57 57 56 56 55 54 54 54 54 55 55 54 55 55 54 56 55 54 53 51 51 49
44 47 52 54 55 55 54 54 53 53 55 56 56 56 56 55 55 54 54 54 54 55 54 54 54 54 56 55 54 54 54 52
40 47 51 54 55 55 55 54 54 54 54 55 56 56 56 55 56 55 53 53 53 54 54 54 54 54 54 55 54 53 53 53
45 47 50 53 54 55 56 55 55 54 54 56 56 56 56 56 56 56 55 53 52 53 53 54 55 55 54 54 54 54 54 54
48 49 51 52 53 54 55 55 55 55 55 56 56 56 56 56 55 55 55 55 54 52 53 53 54 54 55 54 54 54 54 53
50 51 52 52 52 53 54 54 54 55 55 55 55 56 56 56 55 55 56 55 55 54 52 52 52 53 54 54 54 54 54 54
47 49 52 52 53 54 54 54 54 55 55 55 55 55 56 55 56 56 56 56 55 55 54 53 52 52 53 53 53 53 53 53
44 45 46 47 49 50 52 53 55 55 56 55 55 55 55 54 55 55 56 56 55 55 55 54 53 53 51 51 52 52 52 52
42 42 42 43 44 46 46 47 48 53 55 56 56 56 56 56 56 56 56 56 56 55 55 55 54 53 53 52 51 51 51 51
40 40 39 39 40 42 42 44 45 47 48 51 53 55 55 55 55 56 55 56 56 55 55 55 55 53 52 51 52 52 52 51
38 37 37 37 38 39 39 39 40 40 41 42 43 45 46 47 50 55 55 54 55 55 55 55 55 55 53 51 49 51 52 52
37 35 35 35 36 37 37 37 37 37 36 36 38 39 41 43 45 45 46 49 55 55 55 55 55 55 54 52 50 50 51 52

GFSFLT1_sfc_30mbdewp_090.txt.gz
Dewpoint
24 45 54 58 60 60 59 58 57 57 57 57 59 60 61 61 61 62 61 60 59 58 57 54 54 53 52 50 49 52 52 52
26 40 56 58 60 60 59 57 56 56 56 55 56 57 59 59 61 61 61 60 58 56 55 54 52 52 51 49 49 50 51 52
41 53 57 58 59 59 59 57 56 56 55 55 56 58 58 59 60 60 61 59 58 56 54 53 50 50 51 49 49 50 50 51
44 54 57 58 58 58 58 57 57 55 55 55 56 57 58 57 58 59 60 59 58 57 56 54 49 50 51 50 49 49 49 50
43 54 56 57 57 58 58 57 56 55 55 55 55 54 54 56 57 58 59 58 57 57 55 54 52 49 51 51 50 49 50 49
43 52 55 57 57 57 57 56 56 56 55 55 54 54 55 56 57 57 57 58 57 57 56 54 52 51 52 52 50 49 50 49
39 49 55 56 57 56 56 56 55 55 55 55 55 55 55 55 56 56 56 57 58 57 57 55 52 52 52 52 51 50 49 50
37 49 54 55 56 55 55 55 54 55 55 55 55 55 55 54 55 55 56 56 56 57 57 56 54 49 47 52 52 51 50 49
39 48 53 54 55 54 54 55 55 55 55 54 55 56 55 55 55 54 54 55 56 56 57 56 54 54 52 54 52 52 51 50
32 45 52 54 54 54 55 54 54 54 55 56 55 55 55 54 54 54 54 55 55 55 54 55 55 55 55 54 52 53 54 52
34 44 51 54 54 54 54 54 54 53 53 53 54 54 56 55 55 54 54 54 54 54 54 54 54 54 54 55 54 54 54 54
47 49 52 54 54 53 53 53 53 53 53 54 54 55 55 56 55 55 54 53 53 53 54 54 54 54 54 54 54 54 54 53
51 51 52 53 53 53 53 54 53 53 54 54 54 54 55 56 55 56 56 55 53 52 53 53 53 54 54 54 53 53 53 53
46 48 51 52 53 54 54 54 54 55 55 54 54 54 56 56 55 55 56 56 55 54 53 52 52 53 53 54 54 54 53 53
42 43 44 47 48 50 50 51 55 55 55 55 55 55 55 55 55 55 56 56 55 55 55 54 53 53 52 52 53 53 53 53
38 38 40 41 42 44 45 46 49 56 56 55 55 55 55 55 55 55 55 55 55 55 55 55 54 53 53 52 52 52 52 52
37 36 37 38 38 39 40 40 41 43 45 45 46 47 53 54 55 55 55 55 55 55 55 55 54 54 53 52 52 51 51 51
36 35 35 36 37 37 37 37 37 37 38 38 40 42 43 44 45 46 47 50 55 56 56 55 55 55 54 52 50 52 52 51
35 34 33 33 35 36 36 35 35 34 33 32 33 36 37 38 39 40 41 43 45 47 49 53 55 55 47 50 51 51 52 52

GFSFLT1_sfc_30mbdewp_096.txt.gz
Dewpoint
25 26 30 38 45 52 58 61 62 63 62 63 62 63 62 62 62 61 61 62 61 62 62 61 59 58 58 59 58 58 56 53
27 27 29 34 40 50 56 60 62 62 61 60 60 60 61 61 61 62 61 62 61 61 61 60 59 57 57 57 57 56 55 54
27 28 30 36 41 49 55 58 61 61 61 60 59 59 60 60 61 61 62 61 59 60 60 59 58 57 57 57 56 55 54 54
27 28 30 36 45 49 54 57 60 60 60 59 59 58 58 58 60 60 60 59 59 58 59 59 58 57 56 57 56 55 53 54
36 32 30 33 45 50 53 58 58 60 60 59 57 56 55 56 57 58 60 60 58 58 58 58 58 58 56 55 56 55 54 53
42 39 34 33 44 52 55 58 58 59 59 58 57 55 53 56 57 58 59 59 59 58 57 58 57 57 56 56 56 55 54 53
43 44 40 36 43 53 57 58 57 58 59 58 57 55 53 55 56 57 58 58 58 57 56 55 56 56 55 55 54 54 54 54
44 45 45 38 47 54 57 57 57 57 57 57 57 55 54 54 55 57 57 57 57 56 56 55 55 55 54 53 54 53 54 54
44 47 48 45 47 54 57 57 57 57 57 56 56 55 54 54 55 57 57 57 57 57 56 56 55 55 55 55 54 54 54 55
44 47 50 48 46 53 56 56 56 56 56 56 56 55 56 54 55 55 56 57 58 57 56 56 55 54 53 52 51 53 52 52
43 44 50 45 47 53 56 56 55 56 56 56 56 55 56 55 56 55 55 57 58 57 57 55 54 54 54 53 50 50 50 52
40 42 49 48 50 55 56 56 55 55 56 55 55 55 55 56 55 55 55 56 57 57 57 56 54 53 52 51 50 50 51 50
39 40 45 51 53 54 55 55 55 55 55 54 55 55 55 55 55 56 55 55 55 57 57 56 55 54 52 50 49 49 49 46
36 38 40 43 46 53 55 55 55 57 55 56 55 53 54 55 55 56 56 56 56 56 56 56 56 55 54 53 52 51 50 50
34 35 38 39 41 43 44 51 55 55 54 54 54 53 54 55 56 55 56 56 55 55 56 56 56 56 56 56 55 55 55 54
34 33 34 37 38 39 40 41 43 51 52 52 54 54 54 55 55 54 55 56 56 55 55 55 55 55 55 55 55 55 55 54
34 33 33 36 36 37 37 37 38 39 39 40 42 45 46 47 48 49 53 53 55 56 55 55 55 44 36 42 49 55 54 54
31 32 32 35 36 34 35 35 36 36 36 36 36 38 40 41 42 43 44 46 47 44 44 41 37 35 34 35 38 48 53 54
30 31 31 32 35 35 33 33 33 35 34 34 35 35 36 38 38 40 42 42 39 37 37 38 35 32 33 33 35 43 47 50

GFSFLT1_sfc_30mbdewp_102.txt.gz
Dewpoint
23 21 21 23 27 36 63 65 65 64 64 65 63 63 63 62 62 63 63 64 64 64 63 63 62 62 62 62 60 60 59 59
25 24 24 29 31 38 58 64 65 65 63 63 62 62 62 61 62 61 61 62 62 62 62 62 62 62 61 61 60 60 59 59
28 29 29 31 33 36 42 61 64 64 63 63 62 61 61 61 61 62 61 61 62 62 62 62 62 61 60 60 59 58 58 59
29 31 34 39 40 42 38 50 62 64 63 62 62 62 61 61 61 61 61 60 61 62 62 61 61 60 59 60 59 57 56 58
35 37 38 40 40 42 42 40 51 63 63 61 61 60 59 60 60 60 60 61 62 62 62 61 60 60 59 59 60 58 56 56
40 40 42 42 44 44 44 44 44 62 62 62 61 59 59 59 59 59 60 61 60 59 59 60 59 59 59 59 59 59 58 56
40 41 43 44 47 50 50 48 47 62 63 61 60 60 58 58 58 58 59 58 59 58 58 59 60 59 59 58 58 58 58 57
40 41 42 45 47 50 52 48 49 62 62 61 61 60 59 57 56 57 58 58 58 57 58 58 58 59 59 59 59 58 58 58
40 41 43 44 47 48 51 52 50 61 61 60 60 60 59 57 56 57 58 57 57 58 58 58 58 59 59 59 60 59 59 58
39 39 40 41 44 46 49 50 54 59 60 60 60 60 59 56 56 59 58 58 58 58 58 57 58 58 58 58 57 57 57 57
37 37 37 39 40 43 48 52 58 58 58 59 59 59 58 56 57 58 59 58 57 57 57 57 57 57 57 57 57 57 57 57
36 35 36 37 38 40 44 56 57 57 58 58 59 59 56 57 57 58 58 59 58 58 56 56 56 56 56 56 56 56 56 56
35 34 35 36 36 37 40 43 57 58 58 58 58 58 56 55 58 58 59 58 58 57 57 56 55 55 56 55 55 55 55 55
35 35 34 35 35 35 37 39 42 57 58 57 57 57 56 55 57 57 58 58 57 57 56 56 55 54 54 54 54 53 53 53
33 33 34 34 34 34 35 37 39 43 57 57 56 56 56 56 57 57 57 57 57 57 57 56 55 55 54 54 54 54 52 52
33 33 32 34 34 34 34 35 37 39 41 43 46 53 56 56 56 57 57 56 56 57 57 56 55 52 44 51 53 53 53 53
32 32 32 32 33 33 33 34 35 36 37 38 40 43 45 47 49 52 52 50 49 47 46 43 39 36 35 38 46 53 53 53
31 30 31 31 32 33 33 33 34 34 35 35 36 38 39 41 40 41 41 42 41 39 37 36 34 34 35 37 41 48 46 44
31 31 31 31 32 32 32 33 33 33 33 34 35 35 36 36 36 35 35 36 36 34 33 33 32 33 35 40 42 39 35 34

GFSFLT1_sfc_30mbdewp_105.txt.gz
Dewpoint
25 24 22 21 25 62 64 65 64 65 65 65 64 63 63 63 64 65 64 64 64 63 63 63 62 62 62 62 60 60 59 59
25 25 21 22 27 62 64 64 64 64 64 64 63 62 62 61 63 64 64 64 64 64 63 62 62 61 61 61 60 59 59 60
25 27 26 26 30 59 64 64 64 64 63 64 63 62 62 61 61 62 62 64 63 63 62 62 62 61 61 61 60 59 58 59
33 37 39 41 40 46 63 64 64 64 63 63 61 61 61 60 60 60 61 61 62 62 61 62 62 62 61 61 60 59 56 59
41 43 43 45 47 49 49 63 64 64 63 62 60 60 59 60 60 60 61 61 61 62 61 61 61 61 60 60 60 59 58 57
41 42 44 45 46 48 50 51 60 64 62 62 60 60 60 60 60 61 60 60 61 61 62 61 60 60 60 60 60 59 59 57
41 42 42 42 43 45 47 48 51 60 62 61 60 59 60 59 59 59 59 60 60 60 59 60 60 60 60 60 60 59 58 58
39 39 39 40 41 42 44 45 47 50 62 61 61 60 60 59 59 58 59 59 58 58 58 58 58 59 59 59 59 59 59 58
37 37 37 38 39 40 41 43 45 48 59 61 61 60 59 59 58 59 58 58 57 57 57 57 58 59 59 59 59 59 59 58
35 35 36 37 38 39 40 41 44 48 50 62 61 61 60 58 57 59 59 58 57 57 57 57 58 58 59 59 59 58 58 58
35 34 35 36 37 38 39 41 46 50 59 60 60 61 60 58 57 59 58 57 57 57 57 57 58 58 58 58 58 58 58 58
35 35 35 35 36 37 38 40 43 52 59 59 58 59 60 57 58 58 58 57 57 57 57 56 57 57 57 57 57 57 57 57
34 34 35 35 35 36 36 38 40 43 49 58 58 59 58 57 58 58 58 57 57 57 56 56 56 56 56 56 56 56 56 56
33 33 33 34 35 35 35 36 38 40 44 58 58 57 57 57 58 58 59 58 57 57 56 56 56 56 56 56 56 56 56 56
33 32 33 33 34 35 35 35 37 38 40 43 47 57 57 58 58 58 59 58 57 57 56 56 55 55 55 55 55 55 55 55
32 31 32 32 33 33 34 35 35 36 37 37 40 44 50 52 54 58 58 58 57 57 56 56 55 54 51 54 54 54 53 53
30 31 31 31 31 32 32 33 34 34 35 36 37 39 40 42 43 45 47 46 46 45 43 43 41 38 37 41 52 54 54 53
30 30 31 31 31 31 31 31 33 33 33 34 36 37 36 37 37 37 37 37 37 36 36 35 35 36 37 39 44 48 47 44
29 29 31 31 32 31 31 32 31 32 32 32 33 35 35 35 35 34 33 33 33 33 32 33 35 36 37 38 37 35 34 33

GFSFLT1_sfc_30mbdewp_108.txt.gz
Dewpoint
23 22 21 21 35 61 64 65 64 65 65 65 64 63 64 64 64 64 64 65 63 63 62 62 62 61 62 61 61 61 59 59
24 23 25 23 29 58 63 64 64 65 64 64 63 62 62 64 64 64 64 65 64 63 62 62 62 61 61 61 60 59 58 59
25 27 33 36 36 56 62 63 64 64 64 64 64 63 62 62 63 64 64 64 64 63 63 62 61 61 61 60 59 59 58 59
42 44 46 48 49 55 63 64 64 64 63 64 62 62 61 61 61 62 63 64 63 63 63 62 61 61 60 61 60 58 57 58
42 43 43 44 46 48 50 63 64 63 63 63 62 61 60 60 60 60 61 63 63 62 62 62 61 61 61 61 61 59 58 56
39 39 39 40 42 44 46 46 52 56 63 63 61 61 60 60 60 60 60 61 61 62 61 61 61 61 61 60 60 60 59 57
36 37 37 38 40 41 43 44 45 47 52 62 61 60 59 59 59 59 59 59 60 61 61 61 61 60 60 59 60 59 59 58
35 35 36 37 38 39 40 41 42 44 46 52 61 60 59 59 59 59 59 59 60 60 61 61 60 60 60 60 60 60 59 58
34 34 35 36 37 38 38 39 41 43 45 47 59 61 60 59 60 59 59 59 59 59 59 59 59 59 59 60 59 59 59 59
34 35 35 35 36 37 38 39 40 42 46 47 52 61 60 60 59 59 59 59 58 58 58 57 57 57 58 59 58 58 59 58
33 34 34 35 36 36 37 38 38 41 45 51 53 61 60 60 59 59 59 58 58 57 57 57 57 57 57 58 58 58 58 58
33 33 34 34 35 36 37 38 38 40 43 52 60 60 60 59 58 59 58 58 57 57 57 57 57 57 57 57 57 58 58 58
33 33 33 33 34 34 35 37 37 39 42 46 58 58 59 58 58 58 58 57 57 56 56 56 56 56 57 57 56 57 57 57
32 32 32 33 33 33 33 35 36 38 39 41 44 47 57 58 58 58 57 57 57 57 57 56 55 55 56 56 57 56 56 57
31 31 32 32 33 33 33 33 35 36 37 38 39 41 45 54 58 58 57 57 56 57 56 56 56 56 56 56 56 56 56 56
30 30 31 31 31 32 32 32 33 35 34 35 37 38 40 42 48 58 58 57 57 57 56 56 55 55 50 54 56 55 55 55
28 30 30 30 31 30 31 31 32 33 34 34 35 36 36 38 39 42 44 45 45 45 44 43 43 41 40 44 49 55 54 54
28 29 30 30 31 31 30 31 31 31 31 33 33 34 34 35 35 35 36 37 38 37 37 38 37 37 40 42 46 49 46 45
26 27 29 29 30 30 29 29 29 29 30 30 31 33 32 33 32 32 32 32 32 33 33 34 34 34 35 36 37 37 35 34

GFSFLT1_sfc_30mbdewp_111.txt.gz
Dewpoint
24 30 35 45 59 63 65 65 65 65 66 65 64 65 65 64 64 65 64 63 63 63 62 62 62 61 61 61 60 60 60 58
25 25 28 25 32 60 63 65 65 65 64 64 63 63 64 64 64 64 64 63 63 63 62 62 61 61 61 61 61 60 60 60
43 45 47 49 49 42 58 64 64 65 64 64 63 64 63 64 64 63 64 64 63 63 62 61 61 61 61 60 60 59 59 59
42 41 42 43 44 46 58 62 64 64 64 64 63 62 62 61 62 63 63 63 64 63 62 62 61 61 60 60 60 59 58 58
38 39 40 40 41 43 45 59 64 64 64 64 62 61 61 61 61 63 63 63 63 63 63 62 61 61 61 61 60 60 59 57
36 37 38 39 40 41 42 45 48 51 62 64 62 62 62 61 61 61 62 62 63 63 62 62 62 62 62 61 61 60 60 58
35 36 37 37 38 39 41 42 44 46 47 55 62 62 61 60 60 60 60 61 62 62 62 62 61 61 61 61 61 60 60 59
34 35 35 36 37 38 39 40 42 43 45 46 51 62 61 60 60 59 59 60 60 61 61 61 61 61 61 61 60 60 59 59
34 34 35 35 36 37 38 38 40 41 43 45 47 49 61 60 59 59 59 59 59 60 61 61 61 61 60 60 59 59 59 59
34 34 34 34 35 36 37 38 39 40 42 44 48 49 58 61 60 60 59 59 59 60 60 60 60 60 60 59 59 59 59 59
33 33 34 34 34 35 36 37 38 39 41 43 47 51 53 61 60 60 59 59 59 59 59 59 58 58 58 58 58 58 58 58
32 33 33 33 34 34 34 36 37 38 40 42 46 55 55 61 60 59 59 59 58 58 58 57 57 57 57 57 56 57 57 58
31 32 32 32 33 33 34 34 36 37 38 40 42 44 48 59 59 59 59 59 58 58 57 57 57 56 57 56 56 57 57 57
31 31 31 32 32 32 33 33 34 36 37 38 39 41 42 45 51 58 58 58 57 57 57 56 56 56 56 56 56 56 57 57
30 30 30 31 31 31 31 32 33 33 35 36 37 37 39 40 41 45 58 58 57 57 56 56 56 56 56 56 56 56 56 57
29 29 29 30 30 30 30 31 32 32 32 33 35 36 36 36 36 37 40 56 57 57 56 56 56 56 55 56 56 56 56 56
27 28 28 29 29 29 29 29 30 31 31 31 33 34 34 34 34 34 34 35 39 46 49 49 48 43 42 47 52 55 55 55
26 28 28 28 29 28 28 28 29 29 29 30 31 32 33 33 33 33 33 33 33 34 35 38 37 37 39 44 47 51 51 49
26 27 28 29 29 28 26 26 27 27 27 28 29 30 31 31 31 31 32 32 32 31 32 33 34 34 35 37 40 38 36 35

GFSFLT1_sfc_30mbdewp_114.txt.gz
Dewpoint
23 26 43 57 62 63 64 65 65 64 65 65 64 64 64 64 64 64 64 64 63 63 62 62 62 61 61 61 60 60 59 59
39 41 41 37 48 61 64 65 65 65 65 63 62 63 63 63 64 64 63 63 63 62 62 61 62 61 60 60 59 58 59 59
42 42 43 44 46 45 58 64 64 65 64 64 63 63 63 64 64 64 64 63 63 62 62 61 61 61 60 59 60 59 59 60
40 40 40 41 42 44 50 62 64 65 65 64 63 63 63 63 62 63 63 63 63 62 62 62 61 61 60 61 60 60 58 59
37 38 38 39 40 41 44 53 62 64 65 64 62 62 61 62 63 63 63 63 63 63 62 62 61 61 61 61 61 60 59 57
35 36 37 37 38 39 42 45 47 50 56 64 63 62 62 61 62 62 63 63 63 63 63 62 62 62 61 61 61 60 60 58
35 36 36 37 38 38 40 42 43 45 49 52 60 62 62 61 61 61 61 62 62 62 62 62 62 62 61 61 61 60 60 60
35 35 35 36 37 38 39 40 41 43 45 47 49 54 62 61 61 61 61 61 61 61 62 61 62 62 62 61 61 61 60 60
35 34 34 35 36 36 37 38 40 41 43 45 47 49 51 61 60 60 60 61 61 61 62 62 61 61 61 61 61 60 60 60
34 34 34 34 34 35 36 37 38 39 41 44 46 48 51 51 60 60 60 60 60 60 61 61 60 60 61 61 60 59 59 59
33 33 33 34 34 34 35 35 36 38 39 42 44 47 51 51 54 60 60 60 59 59 60 60 60 60 60 60 59 59 59 59
32 32 33 32 33 33 34 34 34 36 38 40 42 43 45 52 53 61 60 59 59 59 59 59 59 58 59 58 58 58 57 57
31 31 32 32 31 32 32 33 33 34 36 38 39 40 42 43 46 48 60 59 59 59 59 58 58 58 57 57 56 56 56 55
29 30 30 30 30 30 31 32 33 33 34 36 36 37 38 39 40 42 46 58 59 58 58 57 57 57 56 56 56 56 56 56
28 28 29 29 28 29 30 30 31 32 33 34 34 35 36 37 38 39 40 43 51 57 57 57 57 57 56 56 56 56 56 56
27 28 28 29 27 28 28 29 30 30 31 32 33 34 34 35 36 36 37 37 37 40 51 57 57 56 55 56 56 55 55 55
26 27 27 27 27 26 27 27 28 29 29 29 31 32 32 33 33 34 35 35 35 35 35 37 38 39 37 43 54 55 55 55
25 25 26 27 27 25 25 26 27 27 27 28 29 30 30 31 31 32 32 33 34 34 34 34 33 34 35 37 42 53 53 50
24 25 25 26 27 25 24 24 24 25 25 26 27 28 29 29 29 30 30 31 31 32 32 33 33 32 33 34 35 37 37 36

GFSFLT1_sfc_30mbdewp_117.txt.gz
Dewpoint
15 21 29 30 31 55 62 63 62 63 63 63 63 63 63 63 63 64 64 65 65 65 64 63 63 62 62 62 61 61 61 60
16 37 44 44 41 54 61 63 62 62 62 62 61 61 61 62 63 63 64 64 64 65 63 62 62 62 61 61 61 61 60 61
21 42 42 43 45 49 61 63 64 63 62 62 62 62 62 62 63 63 64 64 64 64 63 62 61 61 61 61 60 59 60 60
39 40 40 41 42 44 49 62 64 64 64 64 64 64 64 63 62 62 63 64 64 64 63 63 62 62 60 61 60 60 58 59
37 38 39 39 41 43 47 54 64 64 64 64 63 62 61 62 62 63 62 63 63 64 63 63 62 62 61 61 61 61 60 58
36 37 38 39 40 41 43 47 49 53 63 64 63 62 63 63 63 63 63 63 63 64 63 63 63 62 62 62 61 61 61 59
36 36 36 37 38 39 41 44 45 47 50 54 61 63 63 62 62 62 63 63 63 64 63 63 63 63 62 62 62 61 61 60
36 35 35 36 36 37 39 41 42 44 46 48 50 53 58 62 62 62 61 61 62 63 63 63 63 63 62 62 62 61 61 60
35 35 35 35 35 36 36 38 40 41 44 46 48 50 51 53 61 62 62 61 62 62 63 63 63 62 61 62 62 61 61 61
33 34 35 34 35 35 35 36 38 39 41 43 45 48 49 52 53 60 62 62 62 62 62 62 62 62 61 61 61 61 61 61
32 33 33 33 34 34 34 35 35 37 38 41 43 45 46 49 54 53 60 61 61 62 61 61 61 61 61 61 60 61 60 60
30 31 31 32 32 32 33 33 34 35 37 38 39 41 42 44 47 51 52 60 60 60 61 61 61 60 60 60 60 60 59 59
30 31 30 30 30 31 31 32 33 34 35 36 37 38 39 40 41 43 46 50 60 60 59 60 60 60 60 59 59 59 58 58
29 29 29 29 29 29 30 31 32 33 34 34 35 35 36 37 38 40 42 44 47 57 59 59 59 59 58 58 58 58 58 58
27 27 27 27 27 28 28 29 30 31 31 32 33 33 34 35 36 37 38 40 40 42 44 55 58 58 57 57 58 57 57 57
25 25 26 26 25 25 27 27 28 29 30 30 31 32 33 33 34 35 36 36 37 38 38 38 39 38 37 39 49 56 56 56
24 24 24 25 24 24 25 26 27 28 28 28 30 30 30 31 32 32 33 33 34 35 35 35 35 35 35 37 41 50 56 55
23 24 24 25 25 24 24 24 26 26 26 27 28 29 29 30 30 30 31 31 31 31 32 33 33 33 34 35 38 38 41 47
22 23 23 25 27 25 23 23 24 25 25 25 26 27 28 29 29 29 30 30 30 29 30 30 30 31 33 34 34 34 33 33

GFSFLT1_sfc_30mbdewp_120.txt.gz
Dewpoint
16 16 16 14 14 23 29 34 59 61 62 62 61 60 61 60 61 63 65 66 66 65 65 65 65 64 64 64 62 61 60 59
14 17 18 18 22 37 36 34 52 61 61 59 58 58 59 59 60 61 63 65 65 65 64 65 65 64 63 63 63 61 61 60
20 18 20 38 41 43 43 42 45 60 61 59 57 58 58 58 59 60 62 64 65 65 64 64 64 63 63 63 62 61 61 61
35 37 39 42 42 44 45 51 47 58 60 61 59 59 58 59 59 59 62 64 64 64 64 63 63 63 63 62 62 61 60 61
37 38 39 40 41 43 47 53 59 61 63 61 60 59 59 61 59 60 62 63 63 63 64 64 63 63 62 62 62 61 61 59
37 37 37 38 39 40 45 49 51 56 64 63 62 61 60 61 61 61 62 63 63 63 63 63 63 63 63 62 62 61 62 60
36 37 37 37 38 39 42 46 47 50 54 60 63 62 62 62 62 62 63 63 63 64 63 64 63 63 62 63 62 62 62 61
33 34 35 37 37 38 40 42 43 47 50 52 55 58 60 63 62 62 63 63 63 63 63 63 63 63 63 63 62 62 62 62
31 32 34 35 36 37 38 39 40 43 46 48 50 52 53 55 57 59 62 63 63 63 64 64 63 64 63 64 63 63 62 62
30 32 33 34 35 35 37 38 38 39 42 44 46 47 49 51 53 55 56 63 63 63 64 63 63 64 63 63 63 62 62 62
29 30 31 32 33 34 35 36 36 37 39 41 42 44 45 47 50 53 55 55 61 63 62 63 63 63 63 63 62 62 62 61
28 29 30 29 31 32 33 33 34 35 37 38 39 40 42 43 44 46 48 52 53 62 62 62 62 62 61 61 61 61 61 61
28 28 29 27 28 29 30 32 33 34 35 36 36 37 38 39 40 41 44 47 49 55 61 61 61 61 61 60 60 60 60 60
27 27 27 27 27 28 30 31 33 34 34 34 35 35 35 36 37 38 40 41 43 45 46 50 58 60 60 60 60 59 59 60
26 27 27 27 28 28 28 30 31 32 33 34 33 33 34 35 35 36 37 38 39 40 40 40 40 40 40 42 48 58 59 59
25 26 26 28 27 27 27 29 29 31 31 32 33 32 33 33 34 34 34 34 35 36 36 36 36 36 35 36 40 46 55 58
23 24 24 26 27 26 25 27 28 29 29 30 31 32 31 31 32 32 32 32 33 33 33 33 33 33 34 35 38 46 44 51
23 24 25 25 27 25 25 26 27 27 27 28 29 29 30 31 31 31 31 31 31 31 31 32 32 31 33 34 35 37 36 36
23 24 24 25 26 26 25 25 26 26 27 27 28 28 28 29 30 31 31 31 31 30 30 30 30 30 31 32 34 35 33 33

GFSFLT1_sfc_30mbdewp_123.txt.gz
Dewpoint
29 25 19 15 16 17 20 25 32 40 63 64 62 61 61 61 61 62 66 68 67 67 65 65 66 65 64 64 63 62 61 60
34 35 32 25 17 20 21 25 35 41 59 63 62 60 60 60 58 59 65 67 67 66 65 65 66 65 64 64 63 62 61 61
34 35 39 37 41 39 38 38 40 44 42 62 62 59 59 58 57 59 63 65 66 66 65 65 65 64 64 64 64 62 62 62
35 36 37 39 40 42 42 43 40 43 48 59 61 60 58 57 56 58 62 64 65 65 66 65 65 64 63 63 63 62 61 62
32 36 37 37 38 39 41 42 43 45 53 57 60 58 55 55 56 57 60 63 64 65 65 65 64 64 63 62 63 63 62 60
30 32 35 38 38 38 39 42 47 49 53 58 60 59 57 57 57 57 59 63 63 64 64 65 64 63 63 63 62 62 62 61
29 30 32 36 38 38 39 41 45 47 52 59 59 60 58 57 58 59 60 62 62 63 63 64 64 63 63 63 63 62 62 62
29 29 31 33 35 37 39 40 42 45 50 53 55 61 60 60 61 61 62 62 62 62 63 64 64 64 63 63 63 62 62 62
29 30 31 31 33 35 38 39 41 44 47 49 51 52 57 57 57 57 62 62 63 63 63 64 64 64 64 63 63 62 62 62
29 29 30 30 32 32 36 38 39 41 42 46 48 49 52 54 55 56 57 58 60 64 64 64 64 64 64 63 63 63 63 63
28 28 29 30 31 33 35 37 37 38 40 43 44 45 46 47 48 49 50 53 55 57 64 64 64 64 64 64 63 63 64 63
28 28 29 30 30 31 33 36 36 36 37 38 39 41 42 43 43 44 46 49 50 52 58 63 63 63 63 63 62 62 62 62
29 28 29 28 29 30 32 33 35 36 36 36 37 37 38 38 39 40 42 44 45 45 48 49 55 60 62 61 61 61 61 61
28 28 27 28 28 29 31 33 34 35 36 35 35 35 35 35 36 36 37 38 39 40 40 41 40 40 41 43 46 57 60 60
27 27 27 29 29 29 31 31 32 33 34 34 34 34 34 35 35 34 34 35 35 35 36 36 37 36 36 37 40 44 49 55
25 26 27 28 29 29 31 29 30 31 31 32 33 34 33 33 33 33 33 33 33 34 34 33 34 33 34 35 38 44 47 47
24 24 24 26 26 27 27 28 29 29 29 30 32 32 33 33 33 32 32 32 32 32 32 32 32 31 33 35 37 38 37 37
24 24 25 26 27 27 26 27 28 28 28 29 29 31 31 31 32 32 32 31 31 31 31 31 30 30 31 32 34 34 33 32
23 25 25 26 26 27 27 27 26 27 27 27 28 29 29 30 30 31 31 31 31 30 30 30 30 29 30 31 31 31 30 30

GFSFLT1_sfc_30mbdewp_126.txt.gz
Dewpoint
30 32 35 36 39 43 44 44 34 36 40 55 64 64 62 64 65 66 66 68 68 66 66 65 66 65 63 64 63 63 62 61
29 31 34 36 38 40 41 43 45 39 31 50 60 62 61 63 63 65 66 66 67 65 65 66 66 65 64 64 64 63 62 62
28 30 32 34 36 38 39 40 41 43 45 43 52 60 61 61 62 62 65 66 66 65 64 65 65 64 65 64 63 63 63 62
28 29 30 32 33 36 37 39 39 41 44 46 45 49 60 60 61 60 65 66 66 66 64 63 64 63 64 63 62 62 61 62
28 29 28 29 31 34 37 37 38 40 43 45 49 51 53 59 60 59 64 66 66 66 64 64 63 63 62 63 62 62 61 61
28 28 29 29 30 33 36 37 38 41 43 47 48 49 52 56 59 58 61 66 65 65 64 65 63 63 63 62 62 62 62 61
28 28 29 30 31 33 34 36 38 41 44 46 49 51 53 53 58 57 59 64 65 64 64 65 64 63 62 62 62 63 61 62
28 28 29 31 30 31 33 35 37 40 42 47 51 53 56 58 58 57 58 62 64 64 64 64 64 63 63 63 63 62 62 61
29 30 30 30 30 30 32 33 36 39 42 46 48 50 53 55 54 57 61 63 63 64 63 63 64 64 63 63 62 63 62 62
28 30 30 29 30 30 31 33 36 39 41 43 44 45 47 49 50 52 55 54 56 59 63 64 64 64 63 63 63 63 63 62
28 29 29 29 30 31 32 33 35 37 40 40 41 41 43 45 47 47 48 48 51 51 53 61 62 64 64 63 63 63 62 62
28 29 29 31 30 31 31 33 34 36 37 37 37 38 39 40 41 43 44 44 44 45 46 47 48 52 58 63 63 63 63 63
29 29 28 30 30 31 31 32 34 34 36 35 36 36 37 37 37 38 39 40 40 40 41 41 41 40 42 45 48 56 61 62
28 28 27 29 29 30 30 31 33 35 36 35 34 34 35 34 35 36 36 37 37 36 37 37 36 37 38 39 42 45 49 52
27 27 27 28 30 30 30 30 31 32 34 34 34 34 34 34 34 34 34 35 35 35 34 34 34 35 36 38 42 44 45 45
24 26 27 27 28 29 30 30 29 30 31 33 33 33 35 33 33 33 33 33 33 33 32 31 32 33 33 35 38 37 37 37
23 23 25 27 27 27 27 27 28 28 29 30 31 33 33 33 32 32 32 31 31 31 31 30 30 30 32 33 34 33 32 32
25 25 26 26 27 26 27 27 27 27 27 28 29 29 30 30 31 31 31 30 30 30 30 30 29 29 31 32 31 31 30 30
23 25 26 27 26 27 27 27 27 27 26 27 28 28 28 28 29 30 29 29 29 29 28 29 28 28 29 30 32 31 29 29

GFSFLT1_sfc_30mbdewp_129.txt.gz
Dewpoint
28 30 30 30 31 32 34 36 38 40 41 43 49 58 64 63 62 65 67 68 68 67 66 65 66 65 64 63 62 62 61 60
29 29 29 30 30 30 32 33 36 38 39 40 43 47 52 63 62 63 65 67 68 67 66 65 66 64 63 63 62 61 61 62
28 29 29 29 29 29 30 32 35 36 37 39 41 44 49 50 59 62 64 65 67 67 65 65 65 64 63 63 62 62 62 62
28 28 27 27 27 28 30 31 32 35 37 38 41 43 48 52 52 60 61 64 66 66 65 65 65 65 63 63 63 62 61 62
28 27 27 27 28 30 30 31 32 34 37 39 40 43 46 48 51 52 57 62 65 65 64 64 65 64 64 63 62 62 62 61
28 28 27 28 29 30 30 30 32 34 37 39 41 42 45 47 48 50 51 60 64 65 64 63 62 63 63 63 61 60 62 61
27 28 28 28 29 31 31 30 33 34 37 39 41 43 45 46 48 50 50 54 62 65 65 63 63 63 62 62 62 61 60 61
27 28 27 28 30 31 32 32 33 35 38 40 42 44 48 49 48 50 52 51 51 64 65 63 63 63 63 62 61 62 61 60
27 27 28 28 31 31 31 32 32 35 37 39 42 45 48 51 53 55 54 51 51 64 64 63 63 63 63 62 62 62 62 62
27 28 27 29 30 31 31 31 32 33 36 38 40 41 44 49 51 52 53 51 51 52 63 63 63 63 63 63 62 62 62 62
26 27 27 30 31 31 31 31 31 32 34 37 38 39 41 42 43 44 47 51 51 48 48 54 60 61 63 63 62 62 62 62
27 27 28 29 31 30 30 31 31 31 33 34 36 37 37 37 38 39 40 43 45 45 43 42 44 46 48 53 57 60 62 62
27 28 28 28 29 30 30 30 30 32 32 32 35 35 35 34 35 36 37 38 40 39 38 39 39 41 43 45 46 49 51 51
26 27 27 28 29 30 30 30 30 32 32 32 34 34 33 33 33 33 34 34 34 35 35 35 35 36 40 42 43 43 43 43
24 25 27 27 27 28 29 29 30 31 32 32 32 32 33 32 32 32 32 33 32 32 32 33 34 34 36 38 37 38 38 38
23 25 26 26 27 28 27 27 27 29 30 30 31 32 32 32 31 31 31 31 32 32 31 31 32 33 33 34 34 33 33 33
23 24 26 26 26 26 27 26 26 27 27 28 29 30 30 31 31 31 30 30 30 29 29 29 30 31 33 32 31 30 30 30
22 24 27 25 26 27 27 26 27 26 26 27 28 28 29 29 29 30 30 28 29 28 28 27 28 29 30 31 31 30 29 29
21 21 25 25 24 25 28 28 26 26 26 26 26 27 27 28 28 28 29 30 28 27 26 26 26 27 29 29 29 29 29 28